| time (UTC) | temp F | wind direction | speed MPH | gust MPH | rain 1hr in | rain 24hr in | rain mn in | humidity % | barometer mb |
| 20260504211936 | 75 | 233 | 11.0 | 22.0 | 0.00 | 0.00 | 0.00 | 40 | 1000.0 |
| 20260504211857 | 75 | 227 | 7.0 | 18.0 | 0.00 | 0.00 | 0.00 | 40 | 1000.0 |
| 20260504211751 | 74 | 179 | 7.0 | 18.0 | 0.00 | 0.00 | 0.00 | 41 | 1000.0 |
| 20260504211645 | 74 | 161 | 10.0 | 18.0 | 0.00 | 0.00 | 0.00 | 40 | 999.6 |
| 20260504211539 | 74 | 171 | 3.0 | 18.0 | 0.00 | 0.00 | 0.00 | 41 | 1000.0 |
| 20260504211434 | 74 | 199 | 9.0 | 18.0 | 0.00 | 0.00 | 0.00 | 40 | 1000.0 |
| 20260504211328 | 74 | 165 | 9.0 | 18.0 | 0.00 | 0.00 | 0.00 | 40 | 1000.0 |
| 20260504211222 | 74 | 249 | 8.0 | 18.0 | 0.00 | 0.00 | 0.00 | 40 | 1000.0 |
| 20260504211118 | 74 | 206 | 10.0 | 19.0 | 0.00 | 0.00 | 0.00 | 40 | 1000.3 |
| 20260504211012 | 74 | 91 | 4.0 | 19.0 | 0.00 | 0.00 | 0.00 | 40 | 1000.3 |
| 20260504210923 | 74 | 231 | 5.0 | 19.0 | 0.00 | 0.00 | 0.00 | 40 | 1000.3 |
| 20260504210919 | 74 | 201 | 7.0 | 19.0 | 0.00 | 0.00 | 0.00 | 40 | 1000.3 |
| 20260504210802 | 74 | 160 | 6.0 | 19.0 | 0.00 | 0.00 | 0.00 | 40 | 1000.0 |
| 20260504210655 | 74 | 270 | 8.0 | 19.0 | 0.00 | 0.00 | 0.00 | 40 | 1000.0 |
| 20260504210550 | 74 | 214 | 7.0 | 22.0 | 0.00 | 0.00 | 0.00 | 40 | 1000.0 |
| 20260504210444 | 74 | 203 | 6.0 | 22.0 | 0.00 | 0.00 | 0.00 | 40 | 1000.0 |
| 20260504210417 | 74 | 274 | 3.0 | 22.0 | 0.00 | 0.00 | 0.00 | 40 | 1000.3 |
| 20260504210338 | 74 | 291 | 9.0 | 22.0 | 0.00 | 0.00 | 0.00 | 39 | 1000.3 |
| 20260504210232 | 75 | 227 | 15.0 | 22.0 | 0.00 | 0.00 | 0.00 | 39 | 1000.3 |
| 20260504210139 | 75 | 289 | 11.0 | 22.0 | 0.00 | 0.00 | 0.00 | 39 | 1000.0 |
| 20260504210022 | 75 | 247 | 1.0 | 22.0 | 0.00 | 0.00 | 0.00 | 40 | 1000.3 |
| 20260504205915 | 74 | 235 | 5.0 | 22.0 | 0.00 | 0.00 | 0.00 | 41 | 1000.0 |
| 20260504205810 | 74 | 202 | 12.0 | 22.0 | 0.00 | 0.00 | 0.00 | 39 | 1000.0 |
| 20260504205704 | 74 | 215 | 6.0 | 22.0 | 0.00 | 0.00 | 0.00 | 39 | 1000.0 |
| 20260504205559 | 75 | 185 | 15.0 | 19.0 | 0.00 | 0.00 | 0.00 | 39 | 1000.0 |
| 20260504205453 | 75 | 133 | 11.0 | 18.0 | 0.00 | 0.00 | 0.00 | 39 | 999.6 |
| 20260504205405 | 75 | 171 | 13.0 | 18.0 | 0.00 | 0.00 | 0.00 | 39 | 1000.3 |
| 20260504205347 | 75 | 224 | 9.0 | 18.0 | 0.00 | 0.00 | 0.00 | 39 | 1000.3 |
| 20260504205241 | 76 | 224 | 14.0 | 16.0 | 0.00 | 0.00 | 0.00 | 38 | 1000.0 |
| 20260504205137 | 76 | 87 | 1.0 | 14.0 | 0.00 | 0.00 | 0.00 | 39 | 1000.0 |
| 20260504205031 | 76 | 226 | 5.0 | 14.0 | 0.00 | 0.00 | 0.00 | 37 | 1000.3 |
| 20260504204925 | 76 | 212 | 3.0 | 14.0 | 0.00 | 0.00 | 0.00 | 38 | 1000.3 |
| 20260504204858 | 76 | 235 | 4.0 | 14.0 | 0.00 | 0.00 | 0.00 | 38 | 1000.3 |
| 20260504204819 | 76 | 185 | 11.0 | 14.0 | 0.00 | 0.00 | 0.00 | 37 | 1000.0 |
| 20260504204714 | 76 | 207 | 8.0 | 14.0 | 0.00 | 0.00 | 0.00 | 37 | 1000.0 |
| 20260504204608 | 76 | 148 | 3.0 | 15.0 | 0.00 | 0.00 | 0.00 | 38 | 1000.3 |
| 20260504204502 | 76 | 244 | 4.0 | 15.0 | 0.00 | 0.00 | 0.00 | 37 | 1000.0 |
| 20260504204356 | 76 | 208 | 4.0 | 15.0 | 0.00 | 0.00 | 0.00 | 39 | 1000.3 |
| 20260504204251 | 75 | 270 | 4.0 | 17.0 | 0.00 | 0.00 | 0.00 | 39 | 1000.0 |
| 20260504204143 | 75 | 196 | 10.0 | 24.0 | 0.00 | 0.00 | 0.00 | 38 | 1000.3 |
| 20260504204037 | 75 | 226 | 4.0 | 24.0 | 0.00 | 0.00 | 0.00 | 38 | 1000.0 |
| 20260504203932 | 75 | 276 | 4.0 | 24.0 | 0.00 | 0.00 | 0.00 | 38 | 1000.0 |
| 20260504203844 | 75 | 230 | 7.0 | 24.0 | 0.00 | 0.00 | 0.00 | 39 | 1000.0 |
| 20260504203827 | 75 | 225 | 5.0 | 24.0 | 0.00 | 0.00 | 0.00 | 38 | 1000.3 |
| 20260504203721 | 75 | 128 | 5.0 | 24.0 | 0.00 | 0.00 | 0.00 | 38 | 1000.3 |
| 20260504203616 | 75 | 199 | 3.0 | 24.0 | 0.00 | 0.00 | 0.00 | 38 | 1000.0 |
| 20260504203510 | 75 | 250 | 7.0 | 24.0 | 0.00 | 0.00 | 0.00 | 39 | 1000.0 |
| 20260504203404 | 74 | 238 | 9.0 | 26.0 | 0.00 | 0.00 | 0.00 | 38 | 1000.3 |
| 20260504203338 | 74 | 251 | 6.0 | 26.0 | 0.00 | 0.00 | 0.00 | 39 | 1000.3 |
| 20260504203258 | 74 | 186 | 6.0 | 26.0 | 0.00 | 0.00 | 0.00 | 39 | 1000.0 |
| 20260504203153 | 74 | 184 | 17.0 | 26.0 | 0.00 | 0.00 | 0.00 | 38 | 1000.0 |
| 20260504203047 | 74 | 203 | 12.0 | 26.0 | 0.00 | 0.00 | 0.00 | 38 | 1000.0 |
| 20260504202941 | 74 | 205 | 10.0 | 26.0 | 0.00 | 0.00 | 0.00 | 39 | 1000.3 |
| 20260504202835 | 74 | 174 | 11.0 | 26.0 | 0.00 | 0.00 | 0.00 | 39 | 1000.3 |
| 20260504202730 | 74 | 269 | 6.0 | 26.0 | 0.00 | 0.00 | 0.00 | 39 | 1000.3 |
| 20260504202624 | 74 | 140 | 7.0 | 26.0 | 0.00 | 0.00 | 0.00 | 39 | 1000.3 |
| 20260504202519 | 75 | 142 | 9.0 | 26.0 | 0.00 | 0.00 | 0.00 | 38 | 1000.3 |
| 20260504202413 | 75 | 216 | 11.0 | 25.0 | 0.00 | 0.00 | 0.00 | 37 | 1000.0 |
| 20260504202325 | 75 | 215 | 8.0 | 25.0 | 0.00 | 0.00 | 0.00 | 38 | 1000.3 |
| 20260504202308 | 75 | 79 | 6.0 | 25.0 | 0.00 | 0.00 | 0.00 | 38 | 1000.3 |
| 20260504202202 | 74 | 173 | 3.0 | 25.0 | 0.00 | 0.00 | 0.00 | 38 | 1000.0 |
| 20260504202056 | 74 | 200 | 9.0 | 25.0 | 0.00 | 0.00 | 0.00 | 38 | 1000.3 |
| 20260504201950 | 74 | 217 | 15.0 | 21.0 | 0.00 | 0.00 | 0.00 | 38 | 1000.3 |
| 20260504201844 | 74 | 191 | 14.0 | 19.0 | 0.00 | 0.00 | 0.00 | 38 | 1000.3 |
| 20260504201818 | 74 | 216 | 12.0 | 19.0 | 0.00 | 0.00 | 0.00 | 38 | 1000.6 |
| 20260504201739 | 74 | 162 | 6.0 | 19.0 | 0.00 | 0.00 | 0.00 | 38 | 1000.6 |
| 20260504201633 | 74 | 225 | 10.0 | 19.0 | 0.00 | 0.00 | 0.00 | 37 | 1000.3 |
| 20260504201527 | 75 | 313 | 6.0 | 19.0 | 0.00 | 0.00 | 0.00 | 37 | 1000.3 |
| 20260504201422 | 75 | 195 | 8.0 | 19.0 | 0.00 | 0.00 | 0.00 | 37 | 1000.3 |
| 20260504201316 | 75 | 232 | 9.0 | 19.0 | 0.00 | 0.00 | 0.00 | 38 | 1000.3 |
| 20260504201210 | 75 | 221 | 9.0 | 19.0 | 0.00 | 0.00 | 0.00 | 37 | 1000.3 |
| 20260504201106 | 75 | 219 | 16.0 | 19.0 | 0.00 | 0.00 | 0.00 | 36 | 1000.3 |
| 20260504200958 | 75 | 243 | 7.0 | 17.0 | 0.00 | 0.00 | 0.00 | 36 | 1000.3 |
| 20260504200854 | 76 | 202 | 7.0 | 17.0 | 0.00 | 0.00 | 0.00 | 36 | 1000.0 |
| 20260504200805 | 76 | 179 | 5.0 | 17.0 | 0.00 | 0.00 | 0.00 | 35 | 1000.3 |
| 20260504200748 | 76 | 215 | 4.0 | 17.0 | 0.00 | 0.00 | 0.00 | 35 | 1000.3 |
| 20260504200642 | 76 | 209 | 7.0 | 17.0 | 0.00 | 0.00 | 0.00 | 35 | 1000.3 |
| 20260504200536 | 76 | 205 | 8.0 | 17.0 | 0.00 | 0.00 | 0.00 | 33 | 1000.3 |
| 20260504200431 | 76 | 340 | 6.0 | 21.0 | 0.00 | 0.00 | 0.00 | 34 | 1000.3 |
| 20260504200325 | 76 | 136 | 4.0 | 21.0 | 0.00 | 0.00 | 0.00 | 33 | 1000.0 |
| 20260504200259 | 76 | 225 | 9.0 | 21.0 | 0.00 | 0.00 | 0.00 | 32 | 1000.0 |
| 20260504200220 | 76 | 227 | 13.0 | 21.0 | 0.00 | 0.00 | 0.00 | 32 | 1000.3 |
| 20260504200117 | 76 | 244 | 9.0 | 21.0 | 0.00 | 0.00 | 0.00 | 33 | 1000.3 |
| 20260504200008 | 76 | 197 | 8.0 | 21.0 | 0.00 | 0.00 | 0.00 | 34 | 1000.3 |
| 20260504195903 | 75 | 226 | 11.0 | 21.0 | 0.00 | 0.00 | 0.00 | 33 | 1000.3 |
| 20260504195757 | 75 | 218 | 4.0 | 21.0 | 0.00 | 0.00 | 0.00 | 35 | 1000.3 |
| 20260504195651 | 75 | 176 | 9.0 | 21.0 | 0.00 | 0.00 | 0.00 | 36 | 1000.3 |
| 20260504195545 | 75 | 195 | 10.0 | 21.0 | 0.00 | 0.00 | 0.00 | 35 | 1000.3 |
| 20260504195440 | 75 | 186 | 9.0 | 18.0 | 0.00 | 0.00 | 0.00 | 34 | 1000.6 |
| 20260504195334 | 75 | 238 | 10.0 | 18.0 | 0.00 | 0.00 | 0.00 | 32 | 1000.3 |
| 20260504195229 | 75 | 256 | 8.0 | 18.0 | 0.00 | 0.00 | 0.00 | 33 | 1000.3 |
| 20260504195123 | 75 | 238 | 5.0 | 18.0 | 0.00 | 0.00 | 0.00 | 33 | 1000.3 |
| 20260504195017 | 76 | 261 | 9.0 | 18.0 | 0.00 | 0.00 | 0.00 | 33 | 1000.3 |
| 20260504194912 | 76 | 234 | 13.0 | 18.0 | 0.00 | 0.00 | 0.00 | 31 | 1000.6 |
| 20260504194806 | 76 | 222 | 12.0 | 15.0 | 0.00 | 0.00 | 0.00 | 31 | 1000.6 |
| 20260504194740 | 76 | 210 | 4.0 | 15.0 | 0.00 | 0.00 | 0.00 | 32 | 1000.6 |
| 20260504194700 | 76 | 207 | 9.0 | 15.0 | 0.00 | 0.00 | 0.00 | 31 | 1000.6 |
| 20260504194554 | 76 | 204 | 9.0 | 15.0 | 0.00 | 0.00 | 0.00 | 32 | 1000.6 |
| 20260504194449 | 76 | 247 | 8.0 | 14.0 | 0.00 | 0.00 | 0.00 | 32 | 1000.3 |
| 20260504194344 | 76 | 208 | 4.0 | 17.0 | 0.00 | 0.00 | 0.00 | 33 | 1000.3 |
| 20260504194238 | 76 | 196 | 8.0 | 19.0 | 0.00 | 0.00 | 0.00 | 33 | 1000.3 |
| 20260504194132 | 76 | 220 | 0.0 | 19.0 | 0.00 | 0.00 | 0.00 | 32 | 1000.3 |
| 20260504194025 | 75 | 226 | 4.0 | 19.0 | 0.00 | 0.00 | 0.00 | 34 | 1000.6 |
| 20260504193920 | 75 | 175 | 10.0 | 19.0 | 0.00 | 0.00 | 0.00 | 32 | 1000.6 |
| 20260504193815 | 75 | 227 | 8.0 | 19.0 | 0.00 | 0.00 | 0.00 | 34 | 1001.0 |
| 20260504193727 | 75 | 246 | 11.0 | 19.0 | 0.00 | 0.00 | 0.00 | 34 | 1000.3 |
| 20260504193709 | 75 | 298 | 2.0 | 19.0 | 0.00 | 0.00 | 0.00 | 35 | 1000.3 |
| 20260504193603 | 75 | 179 | 5.0 | 19.0 | 0.00 | 0.00 | 0.00 | 33 | 1000.6 |
| 20260504193457 | 75 | 155 | 11.0 | 19.0 | 0.00 | 0.00 | 0.00 | 33 | 1000.3 |
| 20260504193351 | 75 | 196 | 9.0 | 19.0 | 0.00 | 0.00 | 0.00 | 36 | 1000.3 |
| 20260504193246 | 75 | 210 | 0.0 | 18.0 | 0.00 | 0.00 | 0.00 | 37 | 1000.6 |
| 20260504193218 | 75 | 206 | 1.0 | 18.0 | 0.00 | 0.00 | 0.00 | 37 | 1000.3 |
| 20260504193139 | 75 | 239 | 2.0 | 18.0 | 0.00 | 0.00 | 0.00 | 38 | 1000.3 |
| 20260504193035 | 75 | 193 | 6.0 | 18.0 | 0.00 | 0.00 | 0.00 | 38 | 1000.3 |
| 20260504192928 | 75 | 224 | 2.0 | 18.0 | 0.00 | 0.00 | 0.00 | 38 | 1000.6 |
| 20260504192823 | 74 | 245 | 2.0 | 18.0 | 0.00 | 0.00 | 0.00 | 41 | 1000.3 |
| 20260504192717 | 74 | 216 | 9.0 | 18.0 | 0.00 | 0.00 | 0.00 | 39 | 1000.3 |
| 20260504192612 | 75 | 240 | 8.0 | 18.0 | 0.00 | 0.00 | 0.00 | 39 | 1000.6 |
| 20260504192506 | 75 | 184 | 6.0 | 18.0 | 0.00 | 0.00 | 0.00 | 39 | 1000.6 |
| 20260504192401 | 75 | 229 | 11.0 | 18.0 | 0.00 | 0.00 | 0.00 | 38 | 1000.6 |
| 20260504192255 | 75 | 207 | 9.0 | 15.0 | 0.00 | 0.00 | 0.00 | 39 | 1000.6 |
| 20260504192207 | 75 | 197 | 7.0 | 15.0 | 0.00 | 0.00 | 0.00 | 39 | 1000.6 |
| 20260504192150 | 75 | 171 | 6.0 | 15.0 | 0.00 | 0.00 | 0.00 | 39 | 1000.6 |
| 20260504192043 | 75 | 238 | 8.0 | 15.0 | 0.00 | 0.00 | 0.00 | 39 | 1000.6 |
| 20260504191937 | 75 | 254 | 9.0 | 15.0 | 0.00 | 0.00 | 0.00 | 40 | 1000.6 |
| 20260504191831 | 75 | 220 | 5.0 | 15.0 | 0.00 | 0.00 | 0.00 | 37 | 1000.6 |
| 20260504191725 | 76 | 284 | 6.0 | 15.0 | 0.00 | 0.00 | 0.00 | 37 | 1001.0 |
| 20260504191659 | 76 | 258 | 8.0 | 15.0 | 0.00 | 0.00 | 0.00 | 37 | 1001.0 |
| 20260504191620 | 76 | 256 | 11.0 | 15.0 | 0.00 | 0.00 | 0.00 | 36 | 1000.6 |
| 20260504191514 | 75 | 222 | 3.0 | 14.0 | 0.00 | 0.00 | 0.00 | 37 | 1001.0 |
| 20260504191409 | 75 | 221 | 6.0 | 14.0 | 0.00 | 0.00 | 0.00 | 40 | 1001.0 |
| 20260504191304 | 75 | 145 | 8.0 | 15.0 | 0.00 | 0.00 | 0.00 | 38 | 1000.6 |
| 20260504191158 | 75 | 234 | 10.0 | 15.0 | 0.00 | 0.00 | 0.00 | 38 | 1000.6 |
| 20260504191053 | 75 | 166 | 5.0 | 15.0 | 0.00 | 0.00 | 0.00 | 38 | 1000.6 |
| 20260504190947 | 75 | 237 | 5.0 | 16.0 | 0.00 | 0.00 | 0.00 | 39 | 1000.6 |
| 20260504190841 | 74 | 188 | 5.0 | 18.0 | 0.00 | 0.00 | 0.00 | 40 | 1001.0 |
| 20260504190735 | 75 | 230 | 5.0 | 21.0 | 0.00 | 0.00 | 0.00 | 39 | 1001.0 |
| 20260504190647 | 75 | 238 | 3.0 | 21.0 | 0.00 | 0.00 | 0.00 | 40 | 1001.0 |
| 20260504190631 | 75 | 203 | 6.0 | 21.0 | 0.00 | 0.00 | 0.00 | 38 | 1001.0 |
| 20260504190524 | 75 | 268 | 11.0 | 21.0 | 0.00 | 0.00 | 0.00 | 39 | 1001.0 |
| 20260504190419 | 74 | 224 | 7.0 | 21.0 | 0.00 | 0.00 | 0.00 | 39 | 1001.0 |
| 20260504190313 | 74 | 206 | 9.0 | 21.0 | 0.00 | 0.00 | 0.00 | 40 | 1000.6 |
| 20260504190208 | 74 | 234 | 9.0 | 21.0 | 0.00 | 0.00 | 0.00 | 39 | 1001.0 |
| 20260504190141 | 74 | 185 | 12.0 | 21.0 | 0.00 | 0.00 | 0.00 | 39 | 1001.0 |
| 20260504190115 | 74 | 232 | 6.0 | 21.0 | 0.00 | 0.00 | 0.00 | 39 | 1001.0 |
| 20260504185956 | 74 | 247 | 12.0 | 21.0 | 0.00 | 0.00 | 0.00 | 39 | 1001.0 |
| 20260504185851 | 74 | 237 | 10.0 | 21.0 | 0.00 | 0.00 | 0.00 | 39 | 1000.6 |
| 20260504185745 | 74 | 196 | 12.0 | 19.0 | 0.00 | 0.00 | 0.00 | 38 | 1001.0 |
| 20260504185638 | 74 | 255 | 4.0 | 19.0 | 0.00 | 0.00 | 0.00 | 39 | 1000.6 |
| 20260504185532 | 74 | 267 | 1.0 | 19.0 | 0.00 | 0.00 | 0.00 | 40 | 1001.0 |
| 20260504185428 | 74 | 225 | 2.0 | 19.0 | 0.00 | 0.00 | 0.00 | 38 | 1001.0 |
| 20260504185322 | 75 | 167 | 12.0 | 19.0 | 0.00 | 0.00 | 0.00 | 38 | 1001.0 |
| 20260504185216 | 75 | 265 | 7.0 | 19.0 | 0.00 | 0.00 | 0.00 | 37 | 1001.0 |
| 20260504185128 | 74 | 140 | 6.0 | 19.0 | 0.00 | 0.00 | 0.00 | 37 | 1001.0 |
| 20260504185110 | 74 | 208 | 4.0 | 19.0 | 0.00 | 0.00 | 0.00 | 40 | 1001.0 |
| 20260504185005 | 74 | 244 | 6.0 | 19.0 | 0.00 | 0.00 | 0.00 | 38 | 1001.0 |
| 20260504184859 | 75 | 187 | 10.0 | 19.0 | 0.00 | 0.00 | 0.00 | 37 | 1001.3 |
| 20260504184753 | 75 | 207 | 10.0 | 18.0 | 0.00 | 0.00 | 0.00 | 38 | 1001.0 |
| 20260504184648 | 76 | 230 | 8.0 | 17.0 | 0.00 | 0.00 | 0.00 | 37 | 1001.0 |
| 20260504184622 | 76 | 172 | 10.0 | 17.0 | 0.00 | 0.00 | 0.00 | 36 | 1001.0 |
| 20260504184543 | 76 | 225 | 5.0 | 17.0 | 0.00 | 0.00 | 0.00 | 38 | 1001.0 |
| 20260504184437 | 76 | 210 | 7.0 | 17.0 | 0.00 | 0.00 | 0.00 | 38 | 1001.0 |
| 20260504184332 | 75 | 207 | 3.0 | 17.0 | 0.00 | 0.00 | 0.00 | 37 | 1001.0 |
| 20260504184226 | 75 | 228 | 3.0 | 21.0 | 0.00 | 0.00 | 0.00 | 38 | 1001.0 |
| 20260504184120 | 74 | 241 | 3.0 | 21.0 | 0.00 | 0.00 | 0.00 | 39 | 1001.0 |
| 20260504184015 | 74 | 183 | 2.0 | 21.0 | 0.00 | 0.00 | 0.00 | 39 | 1001.0 |
| 20260504183909 | 74 | 298 | 7.0 | 21.0 | 0.00 | 0.00 | 0.00 | 39 | 1001.0 |
| 20260504183804 | 74 | 217 | 10.0 | 21.0 | 0.00 | 0.00 | 0.00 | 39 | 1001.0 |
| 20260504183658 | 74 | 252 | 6.0 | 21.0 | 0.00 | 0.00 | 0.00 | 38 | 1001.0 |
| 20260504183609 | 74 | 248 | 10.0 | 21.0 | 0.00 | 0.00 | 0.00 | 38 | 1001.0 |
| 20260504183552 | 74 | 203 | 7.0 | 21.0 | 0.00 | 0.00 | 0.00 | 38 | 1001.0 |
| 20260504183446 | 74 | 240 | 6.0 | 21.0 | 0.00 | 0.00 | 0.00 | 38 | 1001.3 |
| 20260504183341 | 74 | 218 | 9.0 | 21.0 | 0.00 | 0.00 | 0.00 | 38 | 1001.0 |
| 20260504183235 | 73 | 234 | 5.0 | 21.0 | 0.00 | 0.00 | 0.00 | 42 | 1001.0 |
| 20260504183130 | 73 | 149 | 1.0 | 21.0 | 0.00 | 0.00 | 0.00 | 40 | 1001.3 |
| 20260504183103 | 73 | 113 | 1.0 | 22.0 | 0.00 | 0.00 | 0.00 | 40 | 1001.3 |
| 20260504183024 | 74 | 133 | 6.0 | 22.0 | 0.00 | 0.00 | 0.00 | 40 | 1001.3 |
| 20260504182919 | 74 | 166 | 1.0 | 22.0 | 0.00 | 0.00 | 0.00 | 39 | 1001.3 |
| 20260504182813 | 74 | 191 | 3.0 | 22.0 | 0.00 | 0.00 | 0.00 | 41 | 1001.0 |
| 20260504182707 | 74 | 167 | 10.0 | 22.0 | 0.00 | 0.00 | 0.00 | 39 | 1001.0 |
| 20260504182601 | 74 | 201 | 11.0 | 22.0 | 0.00 | 0.00 | 0.00 | 41 | 1001.3 |
| 20260504182456 | 74 | 294 | 7.0 | 22.0 | 0.00 | 0.00 | 0.00 | 39 | 1001.3 |
| 20260504182349 | 74 | 184 | 4.0 | 22.0 | 0.00 | 0.00 | 0.00 | 42 | 1001.3 |
| 20260504182245 | 73 | 208 | 7.0 | 22.0 | 0.00 | 0.00 | 0.00 | 42 | 1001.3 |
| 20260504182139 | 73 | 183 | 13.0 | 22.0 | 0.00 | 0.00 | 0.00 | 41 | 1001.3 |
| 20260504182051 | 73 | 158 | 11.0 | 19.0 | 0.00 | 0.00 | 0.00 | 40 | 1001.0 |
| 20260504182033 | 73 | 237 | 6.0 | 19.0 | 0.00 | 0.00 | 0.00 | 41 | 1001.3 |
| 20260504181928 | 73 | 206 | 10.0 | 19.0 | 0.00 | 0.00 | 0.00 | 41 | 1001.3 |
| 20260504181835 | 73 | 269 | 5.0 | 19.0 | 0.00 | 0.00 | 0.00 | 41 | 1001.0 |
| 20260504181717 | 73 | 208 | 9.0 | 19.0 | 0.00 | 0.00 | 0.00 | 41 | 1001.3 |
| 20260504181654 | 73 | 217 | 7.0 | 11.0 | 0.00 | 0.00 | 0.00 | 39 | 1002.0 |
| 20260504181650 | 73 | 152 | 2.0 | 16.0 | 0.00 | 0.00 | 0.00 | 41 | 1001.6 |
| 20260504181645 | 73 | 218 | 6.0 | 17.0 | 0.00 | 0.00 | 0.00 | 42 | 1001.3 |
| 20260504181641 | 72 | 123 | 3.0 | 21.0 | 0.00 | 0.00 | 0.00 | 43 | 1001.6 |
| 20260504181637 | 73 | 186 | 2.0 | 19.0 | 0.00 | 0.00 | 0.00 | 41 | 1001.3 |
| 20260504181626 | 73 | 188 | 12.0 | 19.0 | 0.00 | 0.00 | 0.00 | 40 | 1001.3 |
| 20260504181622 | 73 | 116 | 12.0 | 19.0 | 0.00 | 0.00 | 0.00 | 40 | 1001.3 |
| 20260504181401 | 73 | 199 | 7.0 | 19.0 | 0.00 | 0.00 | 0.00 | 41 | 1001.3 |
| 20260504181352 | 74 | 198 | 12.0 | 19.0 | 0.00 | 0.00 | 0.00 | 40 | 1001.3 |
| 20260504181344 | 73 | 176 | 13.0 | 18.0 | 0.00 | 0.00 | 0.00 | 40 | 1001.3 |
| 20260504181113 | 73 | 170 | 4.0 | 18.0 | 0.00 | 0.00 | 0.00 | 42 | 1001.3 |
| 20260504181105 | 73 | 146 | 14.0 | 18.0 | 0.00 | 0.00 | 0.00 | 40 | 1001.3 |
| 20260504180845 | 73 | 94 | 9.0 | 18.0 | 0.00 | 0.00 | 0.00 | 41 | 1001.6 |
| 20260504180837 | 73 | 273 | 3.0 | 15.0 | 0.00 | 0.00 | 0.00 | 41 | 1001.6 |
| 20260504180828 | 73 | 200 | 5.0 | 16.0 | 0.00 | 0.00 | 0.00 | 42 | 1001.3 |
| 20260504180606 | 73 | 184 | 4.0 | 17.0 | 0.00 | 0.00 | 0.00 | 41 | 1001.6 |
| 20260504180557 | 73 | 243 | 2.0 | 17.0 | 0.00 | 0.00 | 0.00 | 41 | 1001.6 |
| 20260504180337 | 73 | 218 | 7.0 | 17.0 | 0.00 | 0.00 | 0.00 | 41 | 1001.6 |
| 20260504180329 | 73 | 188 | 3.0 | 17.0 | 0.00 | 0.00 | 0.00 | 40 | 1001.6 |
| 20260504180320 | 73 | 218 | 6.0 | 17.0 | 0.00 | 0.00 | 0.00 | 42 | 1001.3 |
| 20260504180056 | 73 | 203 | 8.0 | 17.0 | 0.00 | 0.00 | 0.00 | 40 | 1001.3 |
| 20260504180035 | 73 | 225 | 6.0 | 19.0 | 0.00 | 0.00 | 0.00 | 41 | 1001.6 |
| 20260504175810 | 73 | 226 | 6.0 | 19.0 | 0.00 | 0.00 | 0.00 | 42 | 1001.6 |
| 20260504175801 | 72 | 187 | 13.0 | 19.0 | 0.00 | 0.00 | 0.00 | 41 | 1001.6 |
| 20260504175534 | 72 | 226 | 9.0 | 19.0 | 0.00 | 0.00 | 0.00 | 42 | 1001.3 |
| 20260504175526 | 72 | 235 | 4.0 | 21.0 | 0.00 | 0.00 | 0.00 | 42 | 1001.6 |
| 20260504175517 | 72 | 211 | 7.0 | 21.0 | 0.00 | 0.00 | 0.00 | 41 | 1001.6 |
| 20260504175255 | 72 | 183 | 3.0 | 21.0 | 0.00 | 0.00 | 0.00 | 42 | 1001.6 |
| 20260504175246 | 72 | 181 | 5.0 | 21.0 | 0.00 | 0.00 | 0.00 | 42 | 1001.6 |
| 20260504175025 | 72 | 329 | 7.0 | 21.0 | 0.00 | 0.00 | 0.00 | 42 | 1001.6 |
| 20260504175015 | 72 | 211 | 9.0 | 21.0 | 0.00 | 0.00 | 0.00 | 43 | 1002.0 |
| 20260504174754 | 72 | 226 | 6.0 | 21.0 | 0.00 | 0.00 | 0.00 | 42 | 1001.6 |
| 20260504174745 | 73 | 239 | 1.0 | 21.0 | 0.00 | 0.00 | 0.00 | 42 | 1001.6 |
| 20260504174737 | 73 | 210 | 11.0 | 21.0 | 0.00 | 0.00 | 0.00 | 40 | 1001.6 |
| 20260504174511 | 73 | 132 | 0.0 | 21.0 | 0.00 | 0.00 | 0.00 | 41 | 1001.6 |
| 20260504174506 | 73 | 203 | 11.0 | 21.0 | 0.00 | 0.00 | 0.00 | 40 | 1001.6 |
| 20260504174457 | 73 | 210 | 9.0 | 16.0 | 0.00 | 0.00 | 0.00 | 41 | 1001.6 |
| 20260504174234 | 73 | 205 | 2.0 | 11.0 | 0.00 | 0.00 | 0.00 | 40 | 1001.6 |
| 20260504174225 | 73 | 210 | 3.0 | 11.0 | 0.00 | 0.00 | 0.00 | 40 | 1001.6 |
| 20260504174215 | 73 | 217 | 7.0 | 11.0 | 0.00 | 0.00 | 0.00 | 39 | 1002.0 |
| 20260504173953 | 73 | 233 | 5.0 | 17.0 | 0.00 | 0.00 | 0.00 | 39 | 1002.0 |
| 20260504173948 | 73 | 112 | 3.0 | 11.0 | 0.00 | 0.00 | 0.00 | 39 | 1001.6 |
| 20260504173940 | 73 | 252 | 7.0 | 11.0 | 0.00 | 0.00 | 0.00 | 39 | 1001.6 |
| 20260504173717 | 73 | 275 | 4.0 | 14.0 | 0.00 | 0.00 | 0.00 | 39 | 1002.0 |
| 20260504173709 | 73 | 223 | 4.0 | 17.0 | 0.00 | 0.00 | 0.00 | 39 | 1002.0 |
| 20260504173431 | 73 | 244 | 7.0 | 17.0 | 0.00 | 0.00 | 0.00 | 39 | 1001.6 |
| 20260504173325 | 72 | 236 | 0.0 | 17.0 | 0.00 | 0.00 | 0.00 | 41 | 1002.0 |
| 20260504173220 | 72 | 262 | 5.0 | 17.0 | 0.00 | 0.00 | 0.00 | 41 | 1002.0 |
| 20260504173114 | 72 | 241 | 4.0 | 17.0 | 0.00 | 0.00 | 0.00 | 39 | 1002.3 |
| 20260504173008 | 72 | 272 | 0.0 | 17.0 | 0.00 | 0.00 | 0.00 | 42 | 1002.0 |
| 20260504172942 | 72 | 80 | 3.0 | 17.0 | 0.00 | 0.00 | 0.00 | 42 | 1002.0 |
| 20260504172902 | 72 | 236 | 5.0 | 17.0 | 0.00 | 0.00 | 0.00 | 38 | 1002.3 |
| 20260504172756 | 72 | 237 | 8.0 | 17.0 | 0.00 | 0.00 | 0.00 | 40 | 1002.3 |
| 20260504172651 | 73 | 183 | 5.0 | 17.0 | 0.00 | 0.00 | 0.00 | 41 | 1002.0 |
| 20260504172545 | 73 | 229 | 4.0 | 17.0 | 0.00 | 0.00 | 0.00 | 41 | 1002.3 |
| 20260504172439 | 72 | 224 | 4.0 | 13.0 | 0.00 | 0.00 | 0.00 | 41 | 1002.0 |
| 20260504172334 | 72 | 222 | 3.0 | 13.0 | 0.00 | 0.00 | 0.00 | 41 | 1002.0 |
| 20260504172229 | 72 | 232 | 6.0 | 13.0 | 0.00 | 0.00 | 0.00 | 41 | 1002.3 |
| 20260504172123 | 73 | 230 | 6.0 | 14.0 | 0.00 | 0.00 | 0.00 | 41 | 1002.0 |
| 20260504172018 | 74 | 241 | 7.0 | 16.0 | 0.00 | 0.00 | 0.00 | 40 | 1002.0 |
| 20260504171928 | 74 | 199 | 11.0 | 16.0 | 0.00 | 0.00 | 0.00 | 39 | 1002.3 |
| 20260504171912 | 74 | 201 | 6.0 | 16.0 | 0.00 | 0.00 | 0.00 | 39 | 1002.3 |
| 20260504171807 | 74 | 222 | 4.0 | 16.0 | 0.00 | 0.00 | 0.00 | 41 | 1002.0 |
| 20260504171700 | 73 | 209 | 1.0 | 16.0 | 0.00 | 0.00 | 0.00 | 41 | 1002.0 |
| 20260504171555 | 73 | 193 | 4.0 | 16.0 | 0.00 | 0.00 | 0.00 | 41 | 1002.0 |
| 20260504171449 | 73 | 233 | 8.0 | 16.0 | 0.00 | 0.00 | 0.00 | 40 | 1002.3 |
| 20260504171423 | 72 | 245 | 2.0 | 16.0 | 0.00 | 0.00 | 0.00 | 42 | 1002.3 |
| 20260504171344 | 72 | 206 | 4.0 | 16.0 | 0.00 | 0.00 | 0.00 | 40 | 1002.3 |
| 20260504171238 | 72 | 162 | 4.0 | 16.0 | 0.00 | 0.00 | 0.00 | 42 | 1002.3 |
| 20260504171132 | 72 | 262 | 12.0 | 16.0 | 0.00 | 0.00 | 0.00 | 41 | 1002.3 |
| 20260504171029 | 72 | 206 | 6.0 | 11.0 | 0.00 | 0.00 | 0.00 | 42 | 1002.3 |
| 20260504170921 | 72 | 252 | 6.0 | 11.0 | 0.00 | 0.00 | 0.00 | 42 | 1002.3 |
| 20260504170816 | 72 | 250 | 0.0 | 11.0 | 0.00 | 0.00 | 0.00 | 41 | 1002.3 |
| 20260504170710 | 72 | 206 | 2.0 | 11.0 | 0.00 | 0.00 | 0.00 | 40 | 1002.3 |
| 20260504170605 | 72 | 235 | 2.0 | 11.0 | 0.00 | 0.00 | 0.00 | 39 | 1002.3 |
| 20260504170459 | 72 | 306 | 8.0 | 19.0 | 0.00 | 0.00 | 0.00 | 39 | 1002.3 |
| 20260504170410 | 72 | 190 | 8.0 | 19.0 | 0.00 | 0.00 | 0.00 | 39 | 1002.3 |
| 20260504170353 | 73 | 198 | 7.0 | 19.0 | 0.00 | 0.00 | 0.00 | 38 | 1002.3 |
| 20260504170247 | 72 | 206 | 6.0 | 19.0 | 0.00 | 0.00 | 0.00 | 39 | 1002.3 |
| 20260504170142 | 72 | 41 | 6.0 | 19.0 | 0.00 | 0.00 | 0.00 | 40 | 1002.0 |
| 20260504160442 | 70 | 271 | 0.0 | 7.0 | 0.00 | 0.00 | 0.00 | 48 | 1003.4 |
| 20260504160338 | 70 | 229 | 0.0 | 7.0 | 0.00 | 0.00 | 0.00 | 48 | 1003.4 |
| 20260504160249 | 70 | 228 | 0.0 | 7.0 | 0.00 | 0.00 | 0.00 | 47 | 1003.4 |
| 20260504160245 | 70 | 281 | 3.0 | 7.0 | 0.00 | 0.00 | 0.00 | 50 | 1003.4 |
| 20260504160126 | 70 | 109 | 1.0 | 14.0 | 0.00 | 0.00 | 0.00 | 49 | 1003.4 |
| 20260504151145 | 64 | 224 | 0.0 | 11.0 | 0.00 | 0.00 | 0.00 | 58 | 1004.1 |
| 20260504151106 | 64 | 239 | 5.0 | 11.0 | 0.00 | 0.00 | 0.00 | 59 | 1003.8 |
| 20260504151001 | 64 | 160 | 3.0 | 11.0 | 0.00 | 0.00 | 0.00 | 59 | 1003.8 |
| 20260504150854 | 64 | 209 | 3.0 | 11.0 | 0.00 | 0.00 | 0.00 | 58 | 1003.8 |
| 20260504150748 | 64 | 242 | 2.0 | 11.0 | 0.00 | 0.00 | 0.00 | 60 | 1003.8 |
| 20260504150643 | 64 | 254 | 3.0 | 11.0 | 0.00 | 0.00 | 0.00 | 58 | 1003.8 |
| 20260504150537 | 64 | 173 | 0.0 | 11.0 | 0.00 | 0.00 | 0.00 | 59 | 1003.8 |
| 20260504150431 | 64 | 233 | 0.0 | 11.0 | 0.00 | 0.00 | 0.00 | 61 | 1003.8 |
| 20260504150325 | 64 | 203 | 3.0 | 11.0 | 0.00 | 0.00 | 0.00 | 59 | 1004.1 |
| 20260504150219 | 65 | 251 | 2.0 | 8.0 | 0.00 | 0.00 | 0.00 | 59 | 1003.8 |
| 20260504150131 | 65 | 282 | 1.0 | 8.0 | 0.00 | 0.00 | 0.00 | 57 | 1004.1 |
| 20260504150114 | 65 | 262 | 0.0 | 8.0 | 0.00 | 0.00 | 0.00 | 57 | 1004.1 |
| 20260504141301 | 61 | 259 | 0.0 | 9.0 | 0.00 | 0.00 | 0.00 | 64 | 1003.8 |
| 20260504141155 | 60 | 121 | 0.0 | 9.0 | 0.00 | 0.00 | 0.00 | 65 | 1003.8 |
| 20260504141049 | 60 | 109 | 1.0 | 9.0 | 0.00 | 0.00 | 0.00 | 64 | 1003.8 |
| 20260504141037 | 59 | 99 | 0.0 | 14.0 | 0.00 | 0.00 | 0.00 | 65 | 1004.1 |
| 20260504141033 | 60 | 240 | 2.0 | 13.0 | 0.00 | 0.00 | 0.00 | 65 | 1004.5 |
| 20260504141027 | 60 | 253 | 3.0 | 9.0 | 0.00 | 0.00 | 0.00 | 64 | 1003.8 |
| 20260504141023 | 60 | 88 | 0.0 | 9.0 | 0.00 | 0.00 | 0.00 | 65 | 1003.8 |
| 20260504141014 | 59 | 172 | 0.0 | 9.0 | 0.00 | 0.00 | 0.00 | 65 | 1004.1 |
| 20260504141006 | 59 | 230 | 1.0 | 9.0 | 0.00 | 0.00 | 0.00 | 65 | 1004.1 |
| 20260504140957 | 60 | 214 | 4.0 | 10.0 | 0.00 | 0.00 | 0.00 | 65 | 1004.1 |
| 20260504140946 | 60 | 240 | 2.0 | 13.0 | 0.00 | 0.00 | 0.00 | 65 | 1004.5 |
| 20260504140508 | 59 | 187 | 4.0 | 13.0 | 0.00 | 0.00 | 0.00 | 64 | 1004.5 |
| 20260504140459 | 59 | 99 | 1.0 | 13.0 | 0.00 | 0.00 | 0.00 | 65 | 1004.5 |
| 20260504140235 | 59 | 228 | 3.0 | 13.0 | 0.00 | 0.00 | 0.00 | 66 | 1004.1 |
| 20260504140227 | 59 | 202 | 4.0 | 13.0 | 0.00 | 0.00 | 0.00 | 65 | 1004.1 |
| 20260504130759 | 55 | 211 | 6.0 | 10.0 | 0.00 | 0.00 | 0.00 | 70 | 1004.5 |
| 20260504130653 | 55 | 220 | 0.0 | 9.0 | 0.00 | 0.00 | 0.00 | 70 | 1004.8 |
| 20260504130546 | 55 | 219 | 2.0 | 9.0 | 0.00 | 0.00 | 0.00 | 70 | 1004.5 |
| 20260504130442 | 55 | 217 | 6.0 | 9.0 | 0.00 | 0.00 | 0.00 | 70 | 1004.5 |
| 20260504130341 | 55 | 203 | 2.0 | 10.0 | 0.00 | 0.00 | 0.00 | 70 | 1004.8 |
| 20260504130335 | 55 | 211 | 0.0 | 10.0 | 0.00 | 0.00 | 0.00 | 71 | 1004.8 |
| 20260504130230 | 55 | 230 | 2.0 | 10.0 | 0.00 | 0.00 | 0.00 | 71 | 1004.5 |
| 20260504130124 | 55 | 218 | 0.0 | 10.0 | 0.00 | 0.00 | 0.00 | 71 | 1004.8 |
| 20260504120229 | 50 | 208 | 4.0 | 7.0 | 0.00 | 0.00 | 0.00 | 77 | 1005.1 |
| 20260504120221 | 50 | 195 | 2.0 | 7.0 | 0.00 | 0.00 | 0.00 | 77 | 1004.8 |
| 20260504110716 | 47 | 211 | 3.0 | 6.0 | 0.00 | 0.00 | 0.00 | 80 | 1004.8 |
| 20260504110609 | 47 | 193 | 2.0 | 6.0 | 0.00 | 0.00 | 0.00 | 80 | 1004.8 |
| 20260504110553 | 47 | 193 | 2.0 | 7.0 | 0.00 | 0.00 | 0.00 | 80 | 1004.8 |
| 20260504110503 | 47 | 230 | 4.0 | 7.0 | 0.00 | 0.00 | 0.00 | 80 | 1005.1 |
| 20260504110357 | 47 | 218 | 2.0 | 7.0 | 0.00 | 0.00 | 0.00 | 80 | 1004.8 |
| 20260504110251 | 47 | 212 | 3.0 | 7.0 | 0.00 | 0.00 | 0.00 | 80 | 1005.1 |
| 20260504110145 | 47 | 176 | 1.0 | 7.0 | 0.00 | 0.00 | 0.00 | 80 | 1004.8 |
| 20260504100545 | 47 | 176 | 0.0 | 4.0 | 0.00 | 0.00 | 0.00 | 79 | 1004.8 |
| 20260504100439 | 47 | 209 | 1.0 | 4.0 | 0.00 | 0.00 | 0.00 | 79 | 1005.1 |
| 20260504100424 | 47 | 209 | 1.0 | 4.0 | 0.00 | 0.00 | 0.00 | 79 | 1004.8 |
| 20260504100333 | 47 | 231 | 1.0 | 4.0 | 0.00 | 0.00 | 0.00 | 79 | 1004.8 |
| 20260504100227 | 47 | 197 | 1.0 | 4.0 | 0.00 | 0.00 | 0.00 | 79 | 1004.8 |
| 20260504100122 | 47 | 208 | 1.0 | 4.0 | 0.00 | 0.00 | 0.00 | 78 | 1004.8 |
| 20260504090106 | 48 | 211 | 3.0 | 9.0 | 0.00 | 0.00 | 0.00 | 76 | 1005.1 |
| 20260504081914 | 48 | 211 | 3.0 | 9.0 | 0.00 | 0.00 | 0.00 | 75 | 1005.1 |
| 20260504081808 | 48 | 209 | 4.0 | 9.0 | 0.00 | 0.00 | 0.00 | 75 | 1005.5 |
| 20260504081702 | 48 | 201 | 5.0 | 9.0 | 0.00 | 0.00 | 0.00 | 76 | 1005.5 |
| 20260504081557 | 48 | 262 | 5.0 | 9.0 | 0.00 | 0.00 | 0.00 | 75 | 1005.5 |
| 20260504081451 | 48 | 220 | 2.0 | 9.0 | 0.00 | 0.00 | 0.00 | 76 | 1005.1 |
| 20260504081345 | 48 | 231 | 4.0 | 13.0 | 0.00 | 0.00 | 0.00 | 76 | 1005.5 |
| 20260504081239 | 48 | 228 | 3.0 | 13.0 | 0.00 | 0.00 | 0.00 | 75 | 1005.5 |
| 20260504081151 | 48 | 212 | 3.0 | 13.0 | 0.00 | 0.00 | 0.00 | 75 | 1005.5 |
| 20260504081134 | 48 | 215 | 4.0 | 13.0 | 0.00 | 0.00 | 0.00 | 75 | 1005.1 |
| 20260504081028 | 48 | 181 | 3.0 | 13.0 | 0.00 | 0.00 | 0.00 | 75 | 1005.5 |
| 20260504080922 | 48 | 181 | 6.0 | 13.0 | 0.00 | 0.00 | 0.00 | 75 | 1005.5 |
| 20260504080816 | 48 | 217 | 4.0 | 13.0 | 0.00 | 0.00 | 0.00 | 75 | 1005.1 |
| 20260504080710 | 48 | 160 | 4.0 | 13.0 | 0.00 | 0.00 | 0.00 | 75 | 1005.5 |
| 20260504080644 | 48 | 219 | 5.0 | 13.0 | 0.00 | 0.00 | 0.00 | 75 | 1005.5 |
| 20260504080604 | 48 | 201 | 4.0 | 13.0 | 0.00 | 0.00 | 0.00 | 75 | 1005.5 |
| 20260504080459 | 48 | 217 | 6.0 | 13.0 | 0.00 | 0.00 | 0.00 | 75 | 1005.1 |
| 20260504080354 | 48 | 227 | 4.0 | 10.0 | 0.00 | 0.00 | 0.00 | 75 | 1005.5 |
| 20260504080247 | 48 | 227 | 4.0 | 10.0 | 0.00 | 0.00 | 0.00 | 75 | 1005.1 |
| 20260504080142 | 48 | 188 | 9.0 | 10.0 | 0.00 | 0.00 | 0.00 | 75 | 1005.5 |
| 20260504070329 | 49 | 206 | 1.0 | 10.0 | 0.00 | 0.00 | 0.00 | 73 | 1006.1 |
| 20260504070325 | 49 | 254 | 2.0 | 10.0 | 0.00 | 0.00 | 0.00 | 73 | 1006.1 |
| 20260504070316 | 49 | 233 | 4.0 | 10.0 | 0.00 | 0.00 | 0.00 | 73 | 1006.1 |
| 20260504070307 | 49 | 204 | 8.0 | 10.0 | 0.00 | 0.00 | 0.00 | 73 | 1006.6 |
| 20260504060147 | 50 | 228 | 6.0 | 14.0 | 0.00 | 0.00 | 0.00 | 70 | 1006.9 |
| 20260504050749 | 51 | 220 | 3.0 | 18.0 | 0.00 | 0.00 | 0.00 | 68 | 1007.9 |
| 20260504050658 | 51 | 155 | 2.0 | 18.0 | 0.00 | 0.00 | 0.00 | 68 | 1007.6 |
| 20260504050553 | 51 | 216 | 5.0 | 18.0 | 0.00 | 0.00 | 0.00 | 67 | 1007.9 |
| 20260504050446 | 51 | 257 | 0.0 | 18.0 | 0.00 | 0.00 | 0.00 | 67 | 1007.6 |
| 20260504050341 | 52 | 251 | 6.0 | 18.0 | 0.00 | 0.00 | 0.00 | 67 | 1007.9 |
| 20260504050235 | 52 | 227 | 8.0 | 18.0 | 0.00 | 0.00 | 0.00 | 67 | 1007.9 |
| 20260504050129 | 52 | 200 | 11.0 | 18.0 | 0.00 | 0.00 | 0.00 | 67 | 1007.9 |
| 20260504050023 | 51 | 181 | 11.0 | 18.0 | 0.00 | 0.00 | 0.00 | 67 | 1007.9 |
| 20260504045917 | 51 | 210 | 14.0 | 18.0 | 0.00 | 0.00 | 0.00 | 67 | 1007.9 |
| 20260504045812 | 51 | 177 | 5.0 | 11.0 | 0.00 | 0.00 | 0.00 | 67 | 1007.6 |
| 20260504045735 | 51 | 224 | 6.0 | 11.0 | 0.00 | 0.00 | 0.00 | 67 | 1007.6 |
| 20260504045706 | 51 | 226 | 7.0 | 11.0 | 0.00 | 0.00 | 0.00 | 67 | 1007.9 |
| 20260504045601 | 51 | 275 | 7.0 | 11.0 | 0.00 | 0.00 | 0.00 | 67 | 1007.9 |
| 20260504045453 | 51 | 229 | 5.0 | 13.0 | 0.00 | 0.00 | 0.00 | 67 | 1007.9 |
| 20260504045349 | 51 | 219 | 2.0 | 13.0 | 0.00 | 0.00 | 0.00 | 67 | 1007.9 |
| 20260504045243 | 51 | 220 | 6.0 | 15.0 | 0.00 | 0.00 | 0.00 | 67 | 1007.9 |
| 20260504045226 | 51 | 203 | 7.0 | 15.0 | 0.00 | 0.00 | 0.00 | 67 | 1007.9 |
| 20260504045136 | 51 | 224 | 6.0 | 15.0 | 0.00 | 0.00 | 0.00 | 67 | 1007.9 |
| 20260504045030 | 51 | 264 | 8.0 | 15.0 | 0.00 | 0.00 | 0.00 | 66 | 1007.9 |
| 20260504044924 | 51 | 146 | 4.0 | 15.0 | 0.00 | 0.00 | 0.00 | 67 | 1007.9 |
| 20260504044818 | 51 | 246 | 6.0 | 15.0 | 0.00 | 0.00 | 0.00 | 67 | 1007.9 |
| 20260504044718 | 51 | 228 | 3.0 | 15.0 | 0.00 | 0.00 | 0.00 | 67 | 1007.9 |
| 20260504044712 | 51 | 111 | 2.0 | 15.0 | 0.00 | 0.00 | 0.00 | 67 | 1007.9 |
| 20260504044606 | 51 | 221 | 5.0 | 15.0 | 0.00 | 0.00 | 0.00 | 67 | 1007.9 |
| 20260504044501 | 51 | 182 | 6.0 | 15.0 | 0.00 | 0.00 | 0.00 | 66 | 1007.9 |
| 20260504044355 | 51 | 192 | 4.0 | 15.0 | 0.00 | 0.00 | 0.00 | 66 | 1007.9 |
| 20260504044249 | 51 | 191 | 3.0 | 13.0 | 0.00 | 0.00 | 0.00 | 66 | 1007.9 |
| 20260504044212 | 51 | 238 | 9.0 | 13.0 | 0.00 | 0.00 | 0.00 | 66 | 1007.9 |
| 20260504044143 | 51 | 214 | 7.0 | 13.0 | 0.00 | 0.00 | 0.00 | 66 | 1007.9 |
| 20260504044037 | 51 | 235 | 9.0 | 21.0 | 0.00 | 0.00 | 0.00 | 66 | 1007.9 |
| 20260504043931 | 51 | 239 | 6.0 | 21.0 | 0.00 | 0.00 | 0.00 | 67 | 1007.9 |
| 20260504043826 | 51 | 286 | 4.0 | 21.0 | 0.00 | 0.00 | 0.00 | 67 | 1007.9 |
| 20260504043733 | 51 | 191 | 2.0 | 21.0 | 0.00 | 0.00 | 0.00 | 67 | 1007.9 |
| 20260504043705 | 51 | 104 | 2.0 | 21.0 | 0.00 | 0.00 | 0.00 | 67 | 1007.9 |
| 20260504043615 | 51 | 187 | 7.0 | 21.0 | 0.00 | 0.00 | 0.00 | 66 | 1007.9 |
| 20260504043508 | 51 | 193 | 9.0 | 21.0 | 0.00 | 0.00 | 0.00 | 66 | 1007.9 |
| 20260504043403 | 51 | 225 | 4.0 | 21.0 | 0.00 | 0.00 | 0.00 | 66 | 1007.9 |
| 20260504043257 | 51 | 238 | 8.0 | 21.0 | 0.00 | 0.00 | 0.00 | 66 | 1007.9 |
| 20260504043158 | 51 | 224 | 5.0 | 21.0 | 0.00 | 0.00 | 0.00 | 66 | 1007.9 |
| 20260504043152 | 51 | 223 | 5.0 | 21.0 | 0.00 | 0.00 | 0.00 | 66 | 1007.9 |
| 20260504043046 | 51 | 184 | 15.0 | 21.0 | 0.00 | 0.00 | 0.00 | 66 | 1007.9 |
| 20260504042939 | 51 | 191 | 4.0 | 15.0 | 0.00 | 0.00 | 0.00 | 66 | 1007.9 |
| 20260504042833 | 51 | 236 | 6.0 | 15.0 | 0.00 | 0.00 | 0.00 | 66 | 1007.9 |
| 20260504042728 | 51 | 206 | 6.0 | 15.0 | 0.00 | 0.00 | 0.00 | 66 | 1007.9 |
| 20260504042651 | 51 | 203 | 12.0 | 15.0 | 0.00 | 0.00 | 0.00 | 66 | 1007.9 |
| 20260504042622 | 51 | 217 | 6.0 | 15.0 | 0.00 | 0.00 | 0.00 | 66 | 1007.9 |
| 20260504042517 | 51 | 203 | 8.0 | 15.0 | 0.00 | 0.00 | 0.00 | 66 | 1007.9 |
| 20260504042411 | 51 | 227 | 5.0 | 16.0 | 0.00 | 0.00 | 0.00 | 66 | 1008.3 |
| 20260504042306 | 51 | 221 | 7.0 | 16.0 | 0.00 | 0.00 | 0.00 | 66 | 1008.3 |
| 20260504042142 | 51 | 195 | 5.0 | 16.0 | 0.00 | 0.00 | 0.00 | 66 | 1008.3 |
| 20260504042051 | 51 | 232 | 6.0 | 16.0 | 0.00 | 0.00 | 0.00 | 67 | 1008.3 |
| 20260504041947 | 51 | 189 | 4.0 | 16.0 | 0.00 | 0.00 | 0.00 | 66 | 1008.3 |
| 20260504041841 | 51 | 185 | 6.0 | 16.0 | 0.00 | 0.00 | 0.00 | 66 | 1007.9 |
| 20260504041735 | 51 | 192 | 6.0 | 16.0 | 0.00 | 0.00 | 0.00 | 66 | 1008.3 |
| 20260504041646 | 51 | 234 | 2.0 | 16.0 | 0.00 | 0.00 | 0.00 | 66 | 1008.3 |
| 20260504041641 | 51 | 234 | 2.0 | 16.0 | 0.00 | 0.00 | 0.00 | 66 | 1007.9 |
| 20260504041524 | 51 | 214 | 6.0 | 16.0 | 0.00 | 0.00 | 0.00 | 66 | 1007.9 |
| 20260504041430 | 51 | 244 | 9.0 | 17.0 | 0.00 | 0.00 | 0.00 | 66 | 1008.3 |
| 20260504041311 | 51 | 221 | 6.0 | 17.0 | 0.00 | 0.00 | 0.00 | 66 | 1007.9 |
| 20260504041205 | 51 | 191 | 7.0 | 17.0 | 0.00 | 0.00 | 0.00 | 66 | 1008.3 |
| 20260504041129 | 51 | 173 | 8.0 | 17.0 | 0.00 | 0.00 | 0.00 | 66 | 1007.9 |
| 20260504041101 | 51 | 184 | 5.0 | 17.0 | 0.00 | 0.00 | 0.00 | 66 | 1007.9 |
| 20260504040955 | 51 | 213 | 5.0 | 17.0 | 0.00 | 0.00 | 0.00 | 66 | 1008.3 |
| 20260504040848 | 51 | 226 | 6.0 | 17.0 | 0.00 | 0.00 | 0.00 | 66 | 1007.9 |
| 20260504040743 | 51 | 219 | 8.0 | 17.0 | 0.00 | 0.00 | 0.00 | 66 | 1007.9 |
| 20260504040637 | 51 | 224 | 6.0 | 17.0 | 0.00 | 0.00 | 0.00 | 66 | 1008.3 |
| 20260504040621 | 51 | 195 | 4.0 | 17.0 | 0.00 | 0.00 | 0.00 | 66 | 1008.3 |
| 20260504040531 | 51 | 212 | 9.0 | 17.0 | 0.00 | 0.00 | 0.00 | 66 | 1008.3 |
| 20260504040425 | 51 | 196 | 2.0 | 16.0 | 0.00 | 0.00 | 0.00 | 66 | 1008.3 |
| 20260504040320 | 51 | 229 | 4.0 | 16.0 | 0.00 | 0.00 | 0.00 | 66 | 1008.3 |
| 20260504040214 | 51 | 210 | 9.0 | 16.0 | 0.00 | 0.00 | 0.00 | 66 | 1007.9 |
| 20260504040114 | 51 | 214 | 4.0 | 16.0 | 0.00 | 0.00 | 0.00 | 66 | 1008.3 |
| 20260504040108 | 51 | 217 | 5.0 | 16.0 | 0.00 | 0.00 | 0.00 | 66 | 1008.3 |
| 20260504040002 | 51 | 229 | 5.0 | 16.0 | 0.00 | 0.00 | 0.00 | 66 | 1008.3 |
| 20260504035855 | 51 | 189 | 6.0 | 16.0 | 0.00 | 0.00 | 0.00 | 66 | 1008.3 |
| 20260504035749 | 51 | 198 | 11.0 | 16.0 | 0.00 | 0.00 | 0.00 | 66 | 1008.3 |
| 20260504035644 | 51 | 214 | 9.0 | 16.0 | 0.00 | 0.00 | 0.00 | 66 | 1008.3 |
| 20260504035605 | 51 | 234 | 10.0 | 16.0 | 0.00 | 0.00 | 0.00 | 66 | 1008.3 |
| 20260504035537 | 51 | 212 | 12.0 | 16.0 | 0.00 | 0.00 | 0.00 | 66 | 1008.3 |
| 20260504035431 | 51 | 195 | 7.0 | 15.0 | 0.00 | 0.00 | 0.00 | 66 | 1008.3 |
| 20260504035326 | 51 | 195 | 7.0 | 17.0 | 0.00 | 0.00 | 0.00 | 66 | 1008.3 |
| 20260504035220 | 51 | 215 | 5.0 | 17.0 | 0.00 | 0.00 | 0.00 | 66 | 1008.3 |
| 20260504035114 | 51 | 193 | 9.0 | 17.0 | 0.00 | 0.00 | 0.00 | 66 | 1008.6 |
| 20260504035059 | 51 | 176 | 11.0 | 17.0 | 0.00 | 0.00 | 0.00 | 66 | 1008.6 |
| 20260504035008 | 51 | 157 | 8.0 | 17.0 | 0.00 | 0.00 | 0.00 | 67 | 1007.9 |
| 20260504034902 | 51 | 216 | 6.0 | 17.0 | 0.00 | 0.00 | 0.00 | 66 | 1008.3 |
| 20260504034757 | 51 | 201 | 4.0 | 17.0 | 0.00 | 0.00 | 0.00 | 66 | 1008.3 |
| 20260504034650 | 51 | 218 | 8.0 | 17.0 | 0.00 | 0.00 | 0.00 | 66 | 1008.6 |
| 20260504034550 | 51 | 241 | 5.0 | 17.0 | 0.00 | 0.00 | 0.00 | 67 | 1008.3 |
| 20260504034543 | 51 | 190 | 4.0 | 17.0 | 0.00 | 0.00 | 0.00 | 67 | 1008.3 |
| 20260504034437 | 51 | 228 | 7.0 | 17.0 | 0.00 | 0.00 | 0.00 | 67 | 1008.6 |
| 20260504034332 | 51 | 232 | 7.0 | 11.0 | 0.00 | 0.00 | 0.00 | 67 | 1008.3 |
| 20260504034226 | 51 | 304 | 6.0 | 11.0 | 0.00 | 0.00 | 0.00 | 67 | 1008.6 |
| 20260504034121 | 51 | 232 | 4.0 | 11.0 | 0.00 | 0.00 | 0.00 | 67 | 1008.3 |
| 20260504034043 | 51 | 204 | 1.0 | 11.0 | 0.00 | 0.00 | 0.00 | 67 | 1008.3 |
| 20260504034013 | 51 | 161 | 7.0 | 11.0 | 0.00 | 0.00 | 0.00 | 67 | 1008.3 |
| 20260504033909 | 51 | 219 | 6.0 | 11.0 | 0.00 | 0.00 | 0.00 | 68 | 1008.3 |
| 20260504033802 | 51 | 194 | 5.0 | 11.0 | 0.00 | 0.00 | 0.00 | 67 | 1008.3 |
| 20260504033656 | 51 | 217 | 9.0 | 13.0 | 0.00 | 0.00 | 0.00 | 67 | 1008.3 |
| 20260504033535 | 51 | 203 | 7.0 | 13.0 | 0.00 | 0.00 | 0.00 | 68 | 1008.3 |
| 20260504033445 | 51 | 202 | 4.0 | 13.0 | 0.00 | 0.00 | 0.00 | 68 | 1008.3 |
| 20260504033339 | 51 | 184 | 5.0 | 13.0 | 0.00 | 0.00 | 0.00 | 67 | 1008.3 |
| 20260504033233 | 51 | 188 | 5.0 | 13.0 | 0.00 | 0.00 | 0.00 | 67 | 1008.3 |
| 20260504033128 | 51 | 217 | 6.0 | 13.0 | 0.00 | 0.00 | 0.00 | 67 | 1008.6 |
| 20260504033022 | 52 | 110 | 4.0 | 13.0 | 0.00 | 0.00 | 0.00 | 67 | 1008.3 |
| 20260504032916 | 52 | 209 | 4.0 | 13.0 | 0.00 | 0.00 | 0.00 | 67 | 1008.6 |
| 20260504032810 | 52 | 231 | 8.0 | 13.0 | 0.00 | 0.00 | 0.00 | 67 | 1008.3 |
| 20260504032704 | 52 | 214 | 9.0 | 13.0 | 0.00 | 0.00 | 0.00 | 67 | 1008.3 |
| 20260504032559 | 52 | 216 | 6.0 | 13.0 | 0.00 | 0.00 | 0.00 | 67 | 1008.6 |
| 20260504032521 | 52 | 186 | 5.0 | 13.0 | 0.00 | 0.00 | 0.00 | 67 | 1008.6 |
| 20260504032452 | 52 | 180 | 10.0 | 13.0 | 0.00 | 0.00 | 0.00 | 67 | 1008.6 |
| 20260504032347 | 52 | 196 | 6.0 | 15.0 | 0.00 | 0.00 | 0.00 | 67 | 1008.6 |
| 20260504032240 | 52 | 224 | 7.0 | 15.0 | 0.00 | 0.00 | 0.00 | 67 | 1008.6 |
| 20260504032136 | 52 | 218 | 5.0 | 15.0 | 0.00 | 0.00 | 0.00 | 66 | 1008.3 |
| 20260504032030 | 52 | 206 | 7.0 | 15.0 | 0.00 | 0.00 | 0.00 | 66 | 1008.6 |
| 20260504032013 | 52 | 193 | 7.0 | 15.0 | 0.00 | 0.00 | 0.00 | 66 | 1008.6 |
| 20260504031922 | 52 | 191 | 9.0 | 15.0 | 0.00 | 0.00 | 0.00 | 66 | 1008.6 |
| 20260504031816 | 52 | 207 | 8.0 | 15.0 | 0.00 | 0.00 | 0.00 | 66 | 1008.6 |
| 20260504031711 | 52 | 236 | 6.0 | 15.0 | 0.00 | 0.00 | 0.00 | 66 | 1008.6 |
| 20260504031623 | 53 | 268 | 6.0 | 11.0 | 0.00 | 0.00 | 0.00 | 64 | 1009.0 |
| 20260504031619 | 52 | 191 | 9.0 | 14.0 | 0.00 | 0.00 | 0.00 | 66 | 1008.6 |
| 20260504031615 | 52 | 169 | 5.0 | 10.0 | 0.00 | 0.00 | 0.00 | 66 | 1008.6 |
| 20260504031609 | 53 | 216 | 4.0 | 13.0 | 0.00 | 0.00 | 0.00 | 66 | 1009.0 |
| 20260504031605 | 52 | 185 | 7.0 | 15.0 | 0.00 | 0.00 | 0.00 | 66 | 1008.6 |
| 20260504031556 | 53 | 179 | 4.0 | 13.0 | 0.00 | 0.00 | 0.00 | 65 | 1009.0 |
| 20260504031552 | 53 | 210 | 9.0 | 13.0 | 0.00 | 0.00 | 0.00 | 65 | 1009.0 |
| 20260504031547 | 53 | 201 | 2.0 | 11.0 | 0.00 | 0.00 | 0.00 | 65 | 1009.0 |
| 20260504031543 | 53 | 224 | 4.0 | 15.0 | 0.00 | 0.00 | 0.00 | 64 | 1009.0 |
| 20260504031539 | 53 | 187 | 9.0 | 11.0 | 0.00 | 0.00 | 0.00 | 64 | 1009.0 |
| 20260504031533 | 52 | 229 | 6.0 | 15.0 | 0.00 | 0.00 | 0.00 | 66 | 1008.6 |
| 20260504031528 | 52 | 201 | 7.0 | 15.0 | 0.00 | 0.00 | 0.00 | 66 | 1008.6 |
| 20260504031520 | 52 | 192 | 7.0 | 15.0 | 0.00 | 0.00 | 0.00 | 66 | 1008.6 |
| 20260504031258 | 52 | 240 | 5.0 | 15.0 | 0.00 | 0.00 | 0.00 | 66 | 1009.0 |
| 20260504031249 | 52 | 199 | 10.0 | 15.0 | 0.00 | 0.00 | 0.00 | 66 | 1008.6 |
| 20260504031241 | 52 | 187 | 8.0 | 17.0 | 0.00 | 0.00 | 0.00 | 66 | 1008.6 |
| 20260504031020 | 52 | 183 | 7.0 | 17.0 | 0.00 | 0.00 | 0.00 | 67 | 1008.6 |
| 20260504031016 | 52 | 215 | 6.0 | 17.0 | 0.00 | 0.00 | 0.00 | 67 | 1008.6 |
| 20260504031007 | 52 | 227 | 5.0 | 17.0 | 0.00 | 0.00 | 0.00 | 67 | 1008.6 |
| 20260504030743 | 52 | 230 | 2.0 | 17.0 | 0.00 | 0.00 | 0.00 | 67 | 1008.6 |
| 20260504030734 | 52 | 167 | 4.0 | 17.0 | 0.00 | 0.00 | 0.00 | 67 | 1008.6 |
| 20260504030513 | 52 | 206 | 7.0 | 17.0 | 0.00 | 0.00 | 0.00 | 66 | 1009.0 |
| 20260504030502 | 52 | 225 | 5.0 | 17.0 | 0.00 | 0.00 | 0.00 | 67 | 1009.0 |
| 20260504030459 | 52 | 155 | 5.0 | 17.0 | 0.00 | 0.00 | 0.00 | 66 | 1008.6 |
| 20260504030450 | 52 | 125 | 4.0 | 17.0 | 0.00 | 0.00 | 0.00 | 67 | 1008.6 |
| 20260504030227 | 52 | 172 | 6.0 | 17.0 | 0.00 | 0.00 | 0.00 | 66 | 1009.0 |
| 20260504030218 | 52 | 214 | 8.0 | 14.0 | 0.00 | 0.00 | 0.00 | 66 | 1008.6 |
| 20260504025955 | 52 | 191 | 9.0 | 14.0 | 0.00 | 0.00 | 0.00 | 66 | 1008.6 |
| 20260504025946 | 52 | 217 | 6.0 | 14.0 | 0.00 | 0.00 | 0.00 | 66 | 1008.6 |
| 20260504025938 | 52 | 236 | 8.0 | 11.0 | 0.00 | 0.00 | 0.00 | 66 | 1008.6 |
| 20260504025715 | 52 | 233 | 8.0 | 10.0 | 0.00 | 0.00 | 0.00 | 67 | 1008.6 |
| 20260504025706 | 52 | 205 | 4.0 | 10.0 | 0.00 | 0.00 | 0.00 | 67 | 1008.6 |
| 20260504025444 | 52 | 220 | 5.0 | 10.0 | 0.00 | 0.00 | 0.00 | 66 | 1009.0 |
| 20260504025435 | 52 | 225 | 4.0 | 14.0 | 0.00 | 0.00 | 0.00 | 67 | 1008.6 |
| 20260504025216 | 52 | 58 | 7.0 | 14.0 | 0.00 | 0.00 | 0.00 | 66 | 1008.6 |
| 20260504025211 | 52 | 210 | 6.0 | 14.0 | 0.00 | 0.00 | 0.00 | 67 | 1008.6 |
| 20260504025202 | 52 | 185 | 3.0 | 14.0 | 0.00 | 0.00 | 0.00 | 66 | 1008.6 |
| 20260504025154 | 52 | 149 | 7.0 | 14.0 | 0.00 | 0.00 | 0.00 | 66 | 1008.6 |
| 20260504024932 | 52 | 142 | 3.0 | 14.0 | 0.00 | 0.00 | 0.00 | 66 | 1008.6 |
| 20260504024923 | 53 | 234 | 6.0 | 14.0 | 0.00 | 0.00 | 0.00 | 66 | 1009.0 |
| 20260504024704 | 53 | 186 | 5.0 | 14.0 | 0.00 | 0.00 | 0.00 | 66 | 1009.0 |
| 20260504024655 | 53 | 186 | 4.0 | 14.0 | 0.00 | 0.00 | 0.00 | 66 | 1009.0 |
| 20260504024432 | 53 | 189 | 6.0 | 14.0 | 0.00 | 0.00 | 0.00 | 66 | 1009.0 |
| 20260504024428 | 53 | 177 | 6.0 | 14.0 | 0.00 | 0.00 | 0.00 | 66 | 1009.0 |
| 20260504024419 | 53 | 171 | 5.0 | 13.0 | 0.00 | 0.00 | 0.00 | 66 | 1009.0 |
| 20260504024411 | 53 | 221 | 4.0 | 13.0 | 0.00 | 0.00 | 0.00 | 66 | 1009.0 |
| 20260504024148 | 53 | 241 | 7.0 | 13.0 | 0.00 | 0.00 | 0.00 | 66 | 1009.0 |
| 20260504024139 | 53 | 234 | 6.0 | 13.0 | 0.00 | 0.00 | 0.00 | 65 | 1009.0 |
| 20260504023917 | 53 | 249 | 6.0 | 13.0 | 0.00 | 0.00 | 0.00 | 66 | 1009.0 |
| 20260504023909 | 53 | 218 | 7.0 | 13.0 | 0.00 | 0.00 | 0.00 | 66 | 1009.0 |
| 20260504023649 | 53 | 234 | 3.0 | 13.0 | 0.00 | 0.00 | 0.00 | 65 | 1009.0 |
| 20260504023640 | 53 | 206 | 8.0 | 13.0 | 0.00 | 0.00 | 0.00 | 65 | 1009.0 |
| 20260504023632 | 53 | 183 | 5.0 | 13.0 | 0.00 | 0.00 | 0.00 | 65 | 1009.0 |
| 20260504023410 | 53 | 208 | 9.0 | 13.0 | 0.00 | 0.00 | 0.00 | 65 | 1009.0 |
| 20260504023401 | 53 | 216 | 4.0 | 13.0 | 0.00 | 0.00 | 0.00 | 65 | 1009.0 |
| 20260504023139 | 53 | 212 | 4.0 | 13.0 | 0.00 | 0.00 | 0.00 | 65 | 1009.0 |
| 20260504023130 | 53 | 253 | 4.0 | 13.0 | 0.00 | 0.00 | 0.00 | 65 | 1009.0 |
| 20260504022907 | 53 | 199 | 4.0 | 13.0 | 0.00 | 0.00 | 0.00 | 66 | 1009.0 |
| 20260504022858 | 53 | 217 | 3.0 | 13.0 | 0.00 | 0.00 | 0.00 | 65 | 1009.3 |
| 20260504022849 | 53 | 216 | 6.0 | 13.0 | 0.00 | 0.00 | 0.00 | 65 | 1009.3 |
| 20260504022626 | 53 | 225 | 8.0 | 11.0 | 0.00 | 0.00 | 0.00 | 65 | 1009.0 |
| 20260504022618 | 53 | 195 | 3.0 | 11.0 | 0.00 | 0.00 | 0.00 | 65 | 1009.0 |
| 20260504022356 | 53 | 224 | 6.0 | 11.0 | 0.00 | 0.00 | 0.00 | 65 | 1009.3 |
| 20260504022347 | 53 | 169 | 9.0 | 11.0 | 0.00 | 0.00 | 0.00 | 65 | 1009.0 |
| 20260504022122 | 53 | 185 | 4.0 | 11.0 | 0.00 | 0.00 | 0.00 | 65 | 1009.0 |
| 20260504022114 | 53 | 221 | 8.0 | 11.0 | 0.00 | 0.00 | 0.00 | 65 | 1009.0 |
| 20260504022105 | 53 | 180 | 7.0 | 11.0 | 0.00 | 0.00 | 0.00 | 65 | 1009.0 |
| 20260504021844 | 53 | 217 | 4.0 | 11.0 | 0.00 | 0.00 | 0.00 | 65 | 1009.0 |
| 20260504021835 | 53 | 235 | 6.0 | 11.0 | 0.00 | 0.00 | 0.00 | 65 | 1009.0 |
| 20260504021612 | 53 | 205 | 5.0 | 15.0 | 0.00 | 0.00 | 0.00 | 64 | 1009.0 |
| 20260504021603 | 53 | 221 | 4.0 | 15.0 | 0.00 | 0.00 | 0.00 | 64 | 1009.0 |
| 20260504021340 | 53 | 224 | 4.0 | 15.0 | 0.00 | 0.00 | 0.00 | 64 | 1009.0 |
| 20260504021331 | 53 | 193 | 5.0 | 15.0 | 0.00 | 0.00 | 0.00 | 64 | 1009.0 |
| 20260504021323 | 53 | 158 | 8.0 | 15.0 | 0.00 | 0.00 | 0.00 | 64 | 1009.0 |
| 20260504021059 | 53 | 216 | 4.0 | 15.0 | 0.00 | 0.00 | 0.00 | 64 | 1009.0 |
| 20260504021050 | 53 | 102 | 5.0 | 15.0 | 0.00 | 0.00 | 0.00 | 64 | 1009.0 |
| 20260504021039 | 53 | 224 | 8.0 | 15.0 | 0.00 | 0.00 | 0.00 | 64 | 1009.0 |
| 20260504020821 | 53 | 242 | 2.0 | 15.0 | 0.00 | 0.00 | 0.00 | 64 | 1009.0 |
| 20260504020812 | 53 | 188 | 9.0 | 15.0 | 0.00 | 0.00 | 0.00 | 64 | 1009.0 |
| 20260504020804 | 53 | 223 | 6.0 | 13.0 | 0.00 | 0.00 | 0.00 | 64 | 1009.0 |
| 20260504020755 | 53 | 215 | 5.0 | 13.0 | 0.00 | 0.00 | 0.00 | 64 | 1009.0 |
| 20260504020746 | 53 | 187 | 9.0 | 11.0 | 0.00 | 0.00 | 0.00 | 64 | 1009.0 |
| 20260504020312 | 53 | 236 | 6.0 | 11.0 | 0.00 | 0.00 | 0.00 | 65 | 1009.0 |
| 20260504020303 | 53 | 214 | 5.0 | 11.0 | 0.00 | 0.00 | 0.00 | 64 | 1009.0 |
| 20260504020040 | 53 | 234 | 3.0 | 11.0 | 0.00 | 0.00 | 0.00 | 64 | 1009.3 |
| 20260504020031 | 53 | 169 | 6.0 | 11.0 | 0.00 | 0.00 | 0.00 | 64 | 1008.6 |
| 20260504015806 | 53 | 268 | 6.0 | 11.0 | 0.00 | 0.00 | 0.00 | 64 | 1009.0 |
| 20260504015659 | 53 | 241 | 4.0 | 11.0 | 0.00 | 0.00 | 0.00 | 64 | 1009.0 |
| 20260504015554 | 53 | 216 | 8.0 | 11.0 | 0.00 | 0.00 | 0.00 | 65 | 1008.6 |
| 20260504015537 | 53 | 195 | 4.0 | 9.0 | 0.00 | 0.00 | 0.00 | 64 | 1009.0 |
| 20260504015533 | 53 | 198 | 4.0 | 9.0 | 0.00 | 0.00 | 0.00 | 64 | 1009.0 |
| 20260504015524 | 53 | 206 | 4.0 | 9.0 | 0.00 | 0.00 | 0.00 | 64 | 1009.0 |
| 20260504015236 | 53 | 206 | 4.0 | 11.0 | 0.00 | 0.00 | 0.00 | 64 | 1009.3 |
| 20260504015130 | 53 | 243 | 4.0 | 11.0 | 0.00 | 0.00 | 0.00 | 64 | 1009.0 |
| 20260504015024 | 53 | 207 | 5.0 | 11.0 | 0.00 | 0.00 | 0.00 | 65 | 1009.0 |
| 20260504014918 | 53 | 182 | 5.0 | 11.0 | 0.00 | 0.00 | 0.00 | 64 | 1009.0 |
| 20260504014812 | 53 | 189 | 3.0 | 11.0 | 0.00 | 0.00 | 0.00 | 64 | 1008.6 |
| 20260504014756 | 53 | 215 | 3.0 | 11.0 | 0.00 | 0.00 | 0.00 | 64 | 1008.6 |
| 20260504014706 | 53 | 215 | 4.0 | 11.0 | 0.00 | 0.00 | 0.00 | 64 | 1009.0 |
| 20260504014601 | 53 | 221 | 6.0 | 11.0 | 0.00 | 0.00 | 0.00 | 64 | 1009.0 |
| 20260504014454 | 53 | 208 | 4.0 | 11.0 | 0.00 | 0.00 | 0.00 | 64 | 1009.0 |
| 20260504014349 | 53 | 229 | 6.0 | 11.0 | 0.00 | 0.00 | 0.00 | 64 | 1009.0 |
| 20260504014249 | 53 | 212 | 10.0 | 11.0 | 0.00 | 0.00 | 0.00 | 64 | 1009.0 |
| 20260504014243 | 53 | 197 | 6.0 | 10.0 | 0.00 | 0.00 | 0.00 | 64 | 1009.0 |
| 20260504014137 | 53 | 214 | 2.0 | 13.0 | 0.00 | 0.00 | 0.00 | 64 | 1009.0 |
| 20260504014031 | 53 | 218 | 3.0 | 13.0 | 0.00 | 0.00 | 0.00 | 64 | 1009.0 |
| 20260504013925 | 53 | 212 | 6.0 | 13.0 | 0.00 | 0.00 | 0.00 | 63 | 1008.6 |
| 20260504013819 | 53 | 191 | 3.0 | 13.0 | 0.00 | 0.00 | 0.00 | 64 | 1009.0 |
| 20260504013741 | 53 | 210 | 5.0 | 13.0 | 0.00 | 0.00 | 0.00 | 64 | 1009.0 |
| 20260504013713 | 53 | 160 | 5.0 | 13.0 | 0.00 | 0.00 | 0.00 | 64 | 1009.0 |
| 20260504013608 | 53 | 175 | 6.0 | 13.0 | 0.00 | 0.00 | 0.00 | 63 | 1009.0 |
| 20260504013501 | 53 | 237 | 6.0 | 13.0 | 0.00 | 0.00 | 0.00 | 63 | 1009.0 |
| 20260504013357 | 53 | 217 | 3.0 | 13.0 | 0.00 | 0.00 | 0.00 | 63 | 1008.6 |
| 20260504013250 | 53 | 239 | 5.0 | 13.0 | 0.00 | 0.00 | 0.00 | 63 | 1008.6 |
| 20260504013235 | 53 | 209 | 9.0 | 13.0 | 0.00 | 0.00 | 0.00 | 63 | 1008.6 |
| 20260504013145 | 53 | 211 | 4.0 | 9.0 | 0.00 | 0.00 | 0.00 | 64 | 1009.0 |
| 20260504013038 | 53 | 239 | 5.0 | 9.0 | 0.00 | 0.00 | 0.00 | 64 | 1009.0 |
| 20260504012945 | 53 | 205 | 3.0 | 9.0 | 0.00 | 0.00 | 0.00 | 63 | 1009.0 |
| 20260504012827 | 53 | 233 | 6.0 | 9.0 | 0.00 | 0.00 | 0.00 | 63 | 1009.0 |
| 20260504012722 | 53 | 241 | 5.0 | 9.0 | 0.00 | 0.00 | 0.00 | 63 | 1009.0 |
| 20260504012616 | 53 | 206 | 3.0 | 9.0 | 0.00 | 0.00 | 0.00 | 63 | 1009.0 |
| 20260504012510 | 54 | 161 | 7.0 | 9.0 | 0.00 | 0.00 | 0.00 | 63 | 1008.6 |
| 20260504012404 | 54 | 139 | 2.0 | 9.0 | 0.00 | 0.00 | 0.00 | 63 | 1008.6 |
| 20260504012258 | 54 | 210 | 5.0 | 8.0 | 0.00 | 0.00 | 0.00 | 63 | 1009.0 |
| 20260504012220 | 54 | 171 | 2.0 | 8.0 | 0.00 | 0.00 | 0.00 | 63 | 1009.0 |
| 20260504012152 | 54 | 219 | 5.0 | 8.0 | 0.00 | 0.00 | 0.00 | 63 | 1009.0 |
| 20260504012046 | 54 | 203 | 6.0 | 9.0 | 0.00 | 0.00 | 0.00 | 63 | 1009.0 |
| 20260504011940 | 54 | 234 | 2.0 | 9.0 | 0.00 | 0.00 | 0.00 | 62 | 1009.0 |
| 20260504011835 | 54 | 167 | 4.0 | 9.0 | 0.00 | 0.00 | 0.00 | 62 | 1008.6 |
| 20260504011729 | 54 | 196 | 4.0 | 9.0 | 0.00 | 0.00 | 0.00 | 63 | 1009.0 |
| 20260504011714 | 54 | 234 | 2.0 | 9.0 | 0.00 | 0.00 | 0.00 | 63 | 1009.0 |
| 20260504011624 | 54 | 182 | 3.0 | 9.0 | 0.00 | 0.00 | 0.00 | 62 | 1009.0 |
| 20260504011517 | 54 | 241 | 4.0 | 9.0 | 0.00 | 0.00 | 0.00 | 62 | 1009.0 |
| 20260504011424 | 54 | 233 | 4.0 | 9.0 | 0.00 | 0.00 | 0.00 | 62 | 1009.0 |
| 20260504011306 | 54 | 215 | 3.0 | 9.0 | 0.00 | 0.00 | 0.00 | 62 | 1009.0 |
| 20260504011206 | 54 | 213 | 4.0 | 10.0 | 0.00 | 0.00 | 0.00 | 62 | 1009.0 |
| 20260504011159 | 54 | 232 | 3.0 | 10.0 | 0.00 | 0.00 | 0.00 | 62 | 1009.0 |
| 20260504011052 | 54 | 215 | 4.0 | 10.0 | 0.00 | 0.00 | 0.00 | 62 | 1009.0 |
| 20260504010947 | 54 | 196 | 3.0 | 10.0 | 0.00 | 0.00 | 0.00 | 62 | 1009.0 |
| 20260504010841 | 54 | 242 | 3.0 | 10.0 | 0.00 | 0.00 | 0.00 | 61 | 1009.0 |
| 20260504010735 | 54 | 221 | 6.0 | 10.0 | 0.00 | 0.00 | 0.00 | 61 | 1009.0 |
| 20260504010658 | 54 | 214 | 4.0 | 10.0 | 0.00 | 0.00 | 0.00 | 61 | 1009.0 |
| 20260504010629 | 54 | 226 | 4.0 | 10.0 | 0.00 | 0.00 | 0.00 | 61 | 1009.0 |
| 20260504010537 | 55 | 220 | 3.0 | 10.0 | 0.00 | 0.00 | 0.00 | 61 | 1009.0 |
| 20260504010418 | 55 | 219 | 5.0 | 10.0 | 0.00 | 0.00 | 0.00 | 61 | 1009.0 |
| 20260504010312 | 55 | 272 | 4.0 | 10.0 | 0.00 | 0.00 | 0.00 | 61 | 1009.0 |
| 20260504010207 | 55 | 237 | 6.0 | 9.0 | 0.00 | 0.00 | 0.00 | 61 | 1009.0 |
| 20260504010152 | 55 | 239 | 5.0 | 9.0 | 0.00 | 0.00 | 0.00 | 61 | 1009.0 |
| 20260504010111 | 55 | 233 | 4.0 | 10.0 | 0.00 | 0.00 | 0.00 | 61 | 1009.0 |
| 20260504005956 | 55 | 294 | 4.0 | 11.0 | 0.00 | 0.00 | 0.00 | 61 | 1009.0 |
| 20260504005849 | 55 | 244 | 3.0 | 13.0 | 0.00 | 0.00 | 0.00 | 60 | 1009.0 |
| 20260504005744 | 55 | 225 | 2.0 | 13.0 | 0.00 | 0.00 | 0.00 | 60 | 1008.6 |
| 20260504005645 | 55 | 242 | 5.0 | 13.0 | 0.00 | 0.00 | 0.00 | 60 | 1009.0 |
| 20260504005638 | 55 | 235 | 4.0 | 13.0 | 0.00 | 0.00 | 0.00 | 60 | 1009.0 |
| 20260504005532 | 55 | 226 | 6.0 | 13.0 | 0.00 | 0.00 | 0.00 | 60 | 1009.0 |
| 20260504005427 | 55 | 206 | 4.0 | 13.0 | 0.00 | 0.00 | 0.00 | 60 | 1009.0 |
| 20260504005320 | 55 | 202 | 4.0 | 13.0 | 0.00 | 0.00 | 0.00 | 60 | 1009.0 |
| 20260504005214 | 55 | 280 | 5.0 | 16.0 | 0.00 | 0.00 | 0.00 | 59 | 1009.0 |
| 20260504005137 | 55 | 223 | 7.0 | 16.0 | 0.00 | 0.00 | 0.00 | 59 | 1009.0 |
| 20260504005108 | 55 | 194 | 6.0 | 16.0 | 0.00 | 0.00 | 0.00 | 59 | 1008.6 |
| 20260504005002 | 55 | 193 | 7.0 | 16.0 | 0.00 | 0.00 | 0.00 | 59 | 1009.0 |
| 20260504004857 | 55 | 182 | 4.0 | 16.0 | 0.00 | 0.00 | 0.00 | 59 | 1009.0 |
| 20260504004751 | 55 | 255 | 4.0 | 16.0 | 0.00 | 0.00 | 0.00 | 60 | 1009.0 |
| 20260504004629 | 55 | 227 | 8.0 | 17.0 | 0.00 | 0.00 | 0.00 | 59 | 1009.0 |
| 20260504004540 | 55 | 230 | 7.0 | 17.0 | 0.00 | 0.00 | 0.00 | 59 | 1009.0 |
| 20260504004433 | 55 | 227 | 9.0 | 17.0 | 0.00 | 0.00 | 0.00 | 59 | 1009.0 |
| 20260504004328 | 55 | 245 | 9.0 | 17.0 | 0.00 | 0.00 | 0.00 | 59 | 1008.6 |
| 20260504004221 | 56 | 228 | 10.0 | 17.0 | 0.00 | 0.00 | 0.00 | 58 | 1009.0 |
| 20260504004116 | 56 | 222 | 7.0 | 17.0 | 0.00 | 0.00 | 0.00 | 59 | 1008.6 |
| 20260504004010 | 56 | 230 | 6.0 | 17.0 | 0.00 | 0.00 | 0.00 | 58 | 1008.6 |
| 20260504003905 | 56 | 230 | 10.0 | 17.0 | 0.00 | 0.00 | 0.00 | 58 | 1009.0 |
| 20260504003759 | 56 | 241 | 11.0 | 17.0 | 0.00 | 0.00 | 0.00 | 58 | 1009.0 |
| 20260504003653 | 56 | 290 | 9.0 | 17.0 | 0.00 | 0.00 | 0.00 | 57 | 1009.0 |
| 20260504003616 | 56 | 240 | 12.0 | 17.0 | 0.00 | 0.00 | 0.00 | 57 | 1009.0 |
| 20260504003548 | 56 | 230 | 11.0 | 17.0 | 0.00 | 0.00 | 0.00 | 57 | 1009.0 |
| 20260504003442 | 56 | 235 | 8.0 | 17.0 | 0.00 | 0.00 | 0.00 | 57 | 1008.6 |
| 20260504003335 | 57 | 254 | 10.0 | 17.0 | 0.00 | 0.00 | 0.00 | 57 | 1008.6 |
| 20260504003229 | 57 | 214 | 11.0 | 15.0 | 0.00 | 0.00 | 0.00 | 57 | 1008.6 |
| 20260504003124 | 57 | 243 | 8.0 | 15.0 | 0.00 | 0.00 | 0.00 | 57 | 1008.6 |
| 20260504003108 | 57 | 231 | 7.0 | 15.0 | 0.00 | 0.00 | 0.00 | 57 | 1008.6 |
| 20260504003017 | 57 | 175 | 7.0 | 15.0 | 0.00 | 0.00 | 0.00 | 57 | 1008.6 |
| 20260504002912 | 57 | 247 | 7.0 | 15.0 | 0.00 | 0.00 | 0.00 | 56 | 1008.6 |
| 20260504002806 | 57 | 220 | 8.0 | 15.0 | 0.00 | 0.00 | 0.00 | 56 | 1008.6 |
| 20260504002700 | 57 | 239 | 5.0 | 15.0 | 0.00 | 0.00 | 0.00 | 56 | 1008.3 |
| 20260504002601 | 57 | 262 | 6.0 | 15.0 | 0.00 | 0.00 | 0.00 | 55 | 1008.6 |
| 20260504002554 | 57 | 185 | 7.0 | 15.0 | 0.00 | 0.00 | 0.00 | 55 | 1008.6 |
| 20260504002448 | 57 | 204 | 6.0 | 15.0 | 0.00 | 0.00 | 0.00 | 55 | 1008.6 |
| 20260504002342 | 57 | 28 | 5.0 | 15.0 | 0.00 | 0.00 | 0.00 | 55 | 1008.6 |
| 20260504002236 | 57 | 250 | 4.0 | 15.0 | 0.00 | 0.00 | 0.00 | 55 | 1008.6 |
| 20260504002131 | 57 | 197 | 6.0 | 15.0 | 0.00 | 0.00 | 0.00 | 55 | 1008.3 |
| 20260504002054 | 57 | 203 | 6.0 | 15.0 | 0.00 | 0.00 | 0.00 | 55 | 1008.3 |
| 20260504002025 | 57 | 219 | 7.0 | 15.0 | 0.00 | 0.00 | 0.00 | 55 | 1008.3 |
| 20260504001919 | 57 | 196 | 13.0 | 15.0 | 0.00 | 0.00 | 0.00 | 54 | 1008.6 |
| 20260504001814 | 57 | 270 | 8.0 | 14.0 | 0.00 | 0.00 | 0.00 | 54 | 1008.3 |
| 20260504001708 | 57 | 269 | 8.0 | 16.0 | 0.00 | 0.00 | 0.00 | 54 | 1008.3 |
| 20260504001602 | 58 | 177 | 5.0 | 16.0 | 0.00 | 0.00 | 0.00 | 54 | 1008.3 |
| 20260504001547 | 58 | 271 | 5.0 | 16.0 | 0.00 | 0.00 | 0.00 | 54 | 1008.3 |
| 20260504001454 | 58 | 241 | 4.0 | 16.0 | 0.00 | 0.00 | 0.00 | 54 | 1008.3 |
| 20260504001402 | 58 | 292 | 5.0 | 16.0 | 0.00 | 0.00 | 0.00 | 53 | 1008.6 |
| 20260504001240 | 58 | 206 | 4.0 | 16.0 | 0.00 | 0.00 | 0.00 | 53 | 1008.6 |
| 20260504001133 | 58 | 217 | 6.0 | 16.0 | 0.00 | 0.00 | 0.00 | 53 | 1008.3 |
| 20260504001045 | 58 | 238 | 8.0 | 16.0 | 0.00 | 0.00 | 0.00 | 53 | 1008.3 |
| 20260504001028 | 58 | 219 | 5.0 | 16.0 | 0.00 | 0.00 | 0.00 | 53 | 1008.6 |
| 20260504000922 | 58 | 265 | 6.0 | 16.0 | 0.00 | 0.00 | 0.00 | 53 | 1008.6 |
| 20260504000816 | 58 | 185 | 10.0 | 16.0 | 0.00 | 0.00 | 0.00 | 53 | 1008.3 |
| 20260504000710 | 58 | 215 | 6.0 | 15.0 | 0.00 | 0.00 | 0.00 | 53 | 1008.3 |
| 20260504000604 | 58 | 244 | 5.0 | 15.0 | 0.00 | 0.00 | 0.00 | 53 | 1008.3 |
| 20260504000538 | 58 | 267 | 7.0 | 15.0 | 0.00 | 0.00 | 0.00 | 53 | 1008.3 |
| 20260504000459 | 58 | 226 | 6.0 | 15.0 | 0.00 | 0.00 | 0.00 | 53 | 1008.3 |
| 20260504000354 | 58 | 219 | 10.0 | 15.0 | 0.00 | 0.00 | 0.00 | 52 | 1008.3 |
| 20260504000248 | 58 | 232 | 6.0 | 15.0 | 0.00 | 0.00 | 0.00 | 53 | 1008.3 |
| 20260504000139 | 58 | 282 | 9.0 | 15.0 | 0.00 | 0.00 | 0.00 | 53 | 1008.3 |
| 20260504000033 | 58 | 238 | 1.0 | 15.0 | 0.00 | 0.00 | 0.00 | 53 | 1007.9 |
| 20260503235928 | 58 | 218 | 3.0 | 15.0 | 0.00 | 0.00 | 0.00 | 53 | 1008.3 |
| 20260503235822 | 58 | 277 | 6.0 | 11.0 | 0.00 | 0.00 | 0.00 | 53 | 1008.3 |
| 20260503235716 | 58 | 213 | 4.0 | 11.0 | 0.00 | 0.00 | 0.00 | 52 | 1008.3 |
| 20260503235611 | 58 | 201 | 4.0 | 11.0 | 0.00 | 0.00 | 0.00 | 52 | 1008.3 |
| 20260503235522 | 58 | 250 | 2.0 | 11.0 | 0.00 | 0.00 | 0.00 | 52 | 1007.9 |
| 20260503235505 | 58 | 248 | 3.0 | 11.0 | 0.00 | 0.00 | 0.00 | 52 | 1007.9 |
| 20260503235359 | 58 | 237 | 4.0 | 11.0 | 0.00 | 0.00 | 0.00 | 52 | 1007.9 |
| 20260503235253 | 58 | 203 | 5.0 | 14.0 | 0.00 | 0.00 | 0.00 | 52 | 1008.3 |
| 20260503235147 | 58 | 232 | 5.0 | 14.0 | 0.00 | 0.00 | 0.00 | 52 | 1008.3 |
| 20260503235041 | 58 | 253 | 2.0 | 14.0 | 0.00 | 0.00 | 0.00 | 52 | 1008.3 |
| 20260503235016 | 58 | 236 | 4.0 | 14.0 | 0.00 | 0.00 | 0.00 | 51 | 1008.3 |
| 20260503234936 | 58 | 221 | 5.0 | 14.0 | 0.00 | 0.00 | 0.00 | 51 | 1008.3 |
| 20260503234843 | 58 | 238 | 7.0 | 14.0 | 0.00 | 0.00 | 0.00 | 51 | 1007.9 |
| 20260503234723 | 58 | 105 | 3.0 | 14.0 | 0.00 | 0.00 | 0.00 | 51 | 1007.9 |
| 20260503234617 | 58 | 214 | 6.0 | 14.0 | 0.00 | 0.00 | 0.00 | 51 | 1008.3 |
| 20260503234511 | 58 | 271 | 6.0 | 14.0 | 0.00 | 0.00 | 0.00 | 51 | 1007.9 |
| 20260503234406 | 58 | 208 | 8.0 | 14.0 | 0.00 | 0.00 | 0.00 | 51 | 1008.3 |
| 20260503234300 | 58 | 202 | 8.0 | 14.0 | 0.00 | 0.00 | 0.00 | 51 | 1008.3 |
| 20260503234157 | 58 | 284 | 5.0 | 11.0 | 0.00 | 0.00 | 0.00 | 51 | 1007.9 |
| 20260503234048 | 58 | 270 | 4.0 | 11.0 | 0.00 | 0.00 | 0.00 | 51 | 1008.3 |
| 20260503234000 | 58 | 220 | 3.0 | 11.0 | 0.00 | 0.00 | 0.00 | 51 | 1008.3 |
| 20260503233942 | 58 | 210 | 4.0 | 11.0 | 0.00 | 0.00 | 0.00 | 51 | 1008.3 |
| 20260503233838 | 58 | 234 | 4.0 | 11.0 | 0.00 | 0.00 | 0.00 | 50 | 1008.3 |
| 20260503233731 | 58 | 273 | 8.0 | 11.0 | 0.00 | 0.00 | 0.00 | 51 | 1007.9 |
| 20260503233625 | 58 | 246 | 6.0 | 11.0 | 0.00 | 0.00 | 0.00 | 50 | 1007.9 |
| 20260503233520 | 58 | 202 | 5.0 | 15.0 | 0.00 | 0.00 | 0.00 | 50 | 1007.9 |
| 20260503233452 | 58 | 219 | 5.0 | 15.0 | 0.00 | 0.00 | 0.00 | 51 | 1007.9 |
| 20260503233413 | 58 | 258 | 7.0 | 18.0 | 0.00 | 0.00 | 0.00 | 50 | 1007.9 |
| 20260503233307 | 59 | 241 | 5.0 | 18.0 | 0.00 | 0.00 | 0.00 | 51 | 1008.3 |
| 20260503233201 | 59 | 248 | 2.0 | 18.0 | 0.00 | 0.00 | 0.00 | 51 | 1008.3 |
| 20260503233056 | 59 | 250 | 7.0 | 18.0 | 0.00 | 0.00 | 0.00 | 49 | 1008.3 |
| 20260503232949 | 59 | 217 | 8.0 | 18.0 | 0.00 | 0.00 | 0.00 | 49 | 1008.3 |
| 20260503232844 | 59 | 190 | 6.0 | 18.0 | 0.00 | 0.00 | 0.00 | 49 | 1008.3 |
| 20260503232738 | 59 | 172 | 7.0 | 18.0 | 0.00 | 0.00 | 0.00 | 49 | 1008.3 |
| 20260503232633 | 59 | 250 | 9.0 | 24.0 | 0.00 | 0.00 | 0.00 | 49 | 1007.9 |
| 20260503232526 | 59 | 201 | 10.0 | 24.0 | 0.00 | 0.00 | 0.00 | 49 | 1008.3 |
| 20260503232438 | 59 | 270 | 11.0 | 24.0 | 0.00 | 0.00 | 0.00 | 49 | 1008.3 |
| 20260503232421 | 59 | 235 | 6.0 | 24.0 | 0.00 | 0.00 | 0.00 | 49 | 1008.3 |
| 20260503232315 | 59 | 222 | 4.0 | 24.0 | 0.00 | 0.00 | 0.00 | 50 | 1008.3 |
| 20260503232209 | 59 | 125 | 6.0 | 24.0 | 0.00 | 0.00 | 0.00 | 50 | 1008.3 |
| 20260503232104 | 59 | 217 | 4.0 | 24.0 | 0.00 | 0.00 | 0.00 | 49 | 1008.3 |
| 20260503231958 | 59 | 228 | 4.0 | 24.0 | 0.00 | 0.00 | 0.00 | 49 | 1008.3 |
| 20260503231932 | 59 | 215 | 8.0 | 24.0 | 0.00 | 0.00 | 0.00 | 49 | 1008.3 |
| 20260503231852 | 59 | 265 | 6.0 | 24.0 | 0.00 | 0.00 | 0.00 | 49 | 1008.3 |
| 20260503231747 | 59 | 233 | 6.0 | 24.0 | 0.00 | 0.00 | 0.00 | 49 | 1008.3 |
| 20260503231641 | 59 | 208 | 5.0 | 16.0 | 0.00 | 0.00 | 0.00 | 49 | 1008.3 |
| 20260503231535 | 59 | 228 | 0.0 | 16.0 | 0.00 | 0.00 | 0.00 | 49 | 1008.3 |
| 20260503231441 | 59 | 237 | 1.0 | 16.0 | 0.00 | 0.00 | 0.00 | 49 | 1008.3 |
| 20260503231323 | 59 | 197 | 6.0 | 16.0 | 0.00 | 0.00 | 0.00 | 48 | 1008.3 |
| 20260503231217 | 59 | 258 | 10.0 | 16.0 | 0.00 | 0.00 | 0.00 | 48 | 1008.3 |
| 20260503231111 | 59 | 219 | 6.0 | 16.0 | 0.00 | 0.00 | 0.00 | 48 | 1008.3 |
| 20260503231018 | 59 | 226 | 5.0 | 16.0 | 0.00 | 0.00 | 0.00 | 48 | 1008.3 |
| 20260503230917 | 59 | 205 | 5.0 | 16.0 | 0.00 | 0.00 | 0.00 | 49 | 1008.6 |
| 20260503230900 | 60 | 239 | 5.0 | 16.0 | 0.00 | 0.00 | 0.00 | 48 | 1008.6 |
| 20260503230755 | 60 | 255 | 6.0 | 15.0 | 0.00 | 0.00 | 0.00 | 48 | 1008.6 |
| 20260503230648 | 60 | 309 | 10.0 | 15.0 | 0.00 | 0.00 | 0.00 | 48 | 1007.9 |
| 20260503230542 | 60 | 239 | 7.0 | 14.0 | 0.00 | 0.00 | 0.00 | 48 | 1008.3 |
| 20260503230436 | 60 | 218 | 10.0 | 17.0 | 0.00 | 0.00 | 0.00 | 47 | 1008.3 |
| 20260503230410 | 60 | 257 | 6.0 | 17.0 | 0.00 | 0.00 | 0.00 | 48 | 1008.3 |
| 20260503230331 | 60 | 223 | 9.0 | 17.0 | 0.00 | 0.00 | 0.00 | 47 | 1008.3 |
| 20260503230225 | 60 | 220 | 10.0 | 17.0 | 0.00 | 0.00 | 0.00 | 47 | 1008.6 |
| 20260503230120 | 60 | 246 | 9.0 | 17.0 | 0.00 | 0.00 | 0.00 | 47 | 1008.3 |
| 20260503230016 | 60 | 237 | 9.0 | 17.0 | 0.00 | 0.00 | 0.00 | 47 | 1008.6 |
| 20260503225906 | 60 | 235 | 10.0 | 17.0 | 0.00 | 0.00 | 0.00 | 47 | 1008.3 |
| 20260503225801 | 60 | 220 | 8.0 | 17.0 | 0.00 | 0.00 | 0.00 | 47 | 1008.6 |
| 20260503225656 | 60 | 239 | 5.0 | 17.0 | 0.00 | 0.00 | 0.00 | 47 | 1008.6 |
| 20260503225550 | 60 | 210 | 10.0 | 17.0 | 0.00 | 0.00 | 0.00 | 47 | 1008.6 |
| 20260503225443 | 60 | 229 | 7.0 | 15.0 | 0.00 | 0.00 | 0.00 | 47 | 1008.3 |
| 20260503225356 | 60 | 206 | 7.0 | 15.0 | 0.00 | 0.00 | 0.00 | 47 | 1008.6 |
| 20260503225339 | 60 | 245 | 8.0 | 15.0 | 0.00 | 0.00 | 0.00 | 47 | 1008.6 |
| 20260503225232 | 60 | 260 | 8.0 | 15.0 | 0.00 | 0.00 | 0.00 | 46 | 1008.6 |
| 20260503225126 | 60 | 232 | 6.0 | 15.0 | 0.00 | 0.00 | 0.00 | 47 | 1008.6 |
| 20260503225020 | 60 | 239 | 6.0 | 15.0 | 0.00 | 0.00 | 0.00 | 48 | 1008.6 |
| 20260503224915 | 60 | 232 | 6.0 | 15.0 | 0.00 | 0.00 | 0.00 | 47 | 1008.6 |
| 20260503224848 | 60 | 208 | 6.0 | 15.0 | 0.00 | 0.00 | 0.00 | 47 | 1008.6 |
| 20260503224809 | 60 | 243 | 9.0 | 15.0 | 0.00 | 0.00 | 0.00 | 46 | 1008.6 |
| 20260503224704 | 60 | 149 | 8.0 | 15.0 | 0.00 | 0.00 | 0.00 | 47 | 1008.6 |
| 20260503224559 | 60 | 213 | 10.0 | 15.0 | 0.00 | 0.00 | 0.00 | 46 | 1008.6 |
| 20260503224451 | 60 | 184 | 8.0 | 17.0 | 0.00 | 0.00 | 0.00 | 47 | 1008.6 |
| 20260503224345 | 60 | 197 | 5.0 | 17.0 | 0.00 | 0.00 | 0.00 | 46 | 1008.3 |
| 20260503224240 | 60 | 226 | 7.0 | 17.0 | 0.00 | 0.00 | 0.00 | 46 | 1008.6 |
| 20260503224135 | 60 | 167 | 9.0 | 17.0 | 0.00 | 0.00 | 0.00 | 47 | 1008.6 |
| 20260503224028 | 60 | 248 | 5.0 | 17.0 | 0.00 | 0.00 | 0.00 | 46 | 1008.3 |
| 20260503223923 | 60 | 256 | 7.0 | 17.0 | 0.00 | 0.00 | 0.00 | 46 | 1008.6 |
| 20260503223834 | 60 | 234 | 8.0 | 17.0 | 0.00 | 0.00 | 0.00 | 47 | 1008.6 |
| 20260503223818 | 60 | 238 | 8.0 | 17.0 | 0.00 | 0.00 | 0.00 | 46 | 1008.6 |
| 20260503223711 | 60 | 209 | 7.0 | 17.0 | 0.00 | 0.00 | 0.00 | 46 | 1008.3 |
| 20260503223605 | 61 | 227 | 8.0 | 17.0 | 0.00 | 0.00 | 0.00 | 46 | 1008.6 |
| 20260503223502 | 61 | 235 | 13.0 | 15.0 | 0.00 | 0.00 | 0.00 | 45 | 1008.6 |
| 20260503223352 | 61 | 317 | 1.0 | 15.0 | 0.00 | 0.00 | 0.00 | 45 | 1008.3 |
| 20260503223325 | 61 | 121 | 7.0 | 15.0 | 0.00 | 0.00 | 0.00 | 45 | 1008.6 |
| 20260503223245 | 61 | 207 | 5.0 | 15.0 | 0.00 | 0.00 | 0.00 | 46 | 1008.6 |
| 20260503223140 | 61 | 237 | 9.0 | 15.0 | 0.00 | 0.00 | 0.00 | 46 | 1008.6 |
| 20260503223034 | 61 | 254 | 8.0 | 18.0 | 0.00 | 0.00 | 0.00 | 46 | 1008.6 |
| 20260503222928 | 61 | 256 | 9.0 | 18.0 | 0.00 | 0.00 | 0.00 | 45 | 1008.6 |
| 20260503222822 | 61 | 168 | 6.0 | 18.0 | 0.00 | 0.00 | 0.00 | 45 | 1008.6 |
| 20260503222716 | 61 | 233 | 8.0 | 18.0 | 0.00 | 0.00 | 0.00 | 45 | 1008.6 |
| 20260503222609 | 61 | 273 | 7.0 | 18.0 | 0.00 | 0.00 | 0.00 | 44 | 1008.3 |
| 20260503222504 | 61 | 240 | 6.0 | 18.0 | 0.00 | 0.00 | 0.00 | 45 | 1008.3 |
| 20260503222358 | 61 | 230 | 8.0 | 18.0 | 0.00 | 0.00 | 0.00 | 45 | 1008.6 |
| 20260503222309 | 61 | 209 | 6.0 | 18.0 | 0.00 | 0.00 | 0.00 | 46 | 1008.6 |
| 20260503222251 | 61 | 218 | 5.0 | 18.0 | 0.00 | 0.00 | 0.00 | 45 | 1008.6 |
| 20260503222146 | 61 | 168 | 6.0 | 18.0 | 0.00 | 0.00 | 0.00 | 45 | 1008.6 |
| 20260503222040 | 61 | 233 | 8.0 | 14.0 | 0.00 | 0.00 | 0.00 | 46 | 1008.6 |
| 20260503221934 | 61 | 228 | 7.0 | 13.0 | 0.00 | 0.00 | 0.00 | 45 | 1009.0 |
| 20260503221828 | 60 | 277 | 2.0 | 13.0 | 0.00 | 0.00 | 0.00 | 46 | 1008.6 |
| 20260503221802 | 60 | 235 | 5.0 | 13.0 | 0.00 | 0.00 | 0.00 | 46 | 1008.6 |
| 20260503221723 | 60 | 215 | 2.0 | 13.0 | 0.00 | 0.00 | 0.00 | 46 | 1008.6 |
| 20260503221617 | 60 | 196 | 4.0 | 13.0 | 0.00 | 0.00 | 0.00 | 45 | 1008.6 |
| 20260503221511 | 60 | 207 | 7.0 | 13.0 | 0.00 | 0.00 | 0.00 | 45 | 1008.6 |
| 20260503221406 | 60 | 195 | 2.0 | 16.0 | 0.00 | 0.00 | 0.00 | 46 | 1008.6 |
| 20260503221259 | 60 | 248 | 3.0 | 18.0 | 0.00 | 0.00 | 0.00 | 46 | 1008.6 |
| 20260503221154 | 60 | 206 | 3.0 | 18.0 | 0.00 | 0.00 | 0.00 | 46 | 1008.6 |
| 20260503221048 | 60 | 208 | 7.0 | 18.0 | 0.00 | 0.00 | 0.00 | 45 | 1008.6 |
| 20260503220942 | 60 | 250 | 4.0 | 18.0 | 0.00 | 0.00 | 0.00 | 46 | 1009.0 |
| 20260503220837 | 60 | 230 | 5.0 | 18.0 | 0.00 | 0.00 | 0.00 | 45 | 1008.6 |
| 20260503220749 | 60 | 250 | 4.0 | 18.0 | 0.00 | 0.00 | 0.00 | 46 | 1008.6 |
| 20260503220732 | 60 | 246 | 3.0 | 18.0 | 0.00 | 0.00 | 0.00 | 45 | 1008.6 |
| 20260503220628 | 60 | 267 | 8.0 | 18.0 | 0.00 | 0.00 | 0.00 | 44 | 1008.6 |
| 20260503220519 | 60 | 115 | 7.0 | 18.0 | 0.00 | 0.00 | 0.00 | 44 | 1008.6 |
| 20260503220414 | 61 | 258 | 9.0 | 18.0 | 0.00 | 0.00 | 0.00 | 44 | 1008.3 |
| 20260503220308 | 61 | 180 | 11.0 | 18.0 | 0.00 | 0.00 | 0.00 | 44 | 1009.0 |
| 20260503220242 | 61 | 236 | 7.0 | 18.0 | 0.00 | 0.00 | 0.00 | 44 | 1009.0 |
| 20260503220203 | 61 | 197 | 8.0 | 18.0 | 0.00 | 0.00 | 0.00 | 44 | 1009.0 |
| 20260503220103 | 61 | 239 | 6.0 | 18.0 | 0.00 | 0.00 | 0.00 | 45 | 1008.6 |
| 20260503215951 | 61 | 285 | 6.0 | 18.0 | 0.00 | 0.00 | 0.00 | 44 | 1008.6 |
| 20260503215846 | 61 | 154 | 6.0 | 18.0 | 0.00 | 0.00 | 0.00 | 44 | 1008.6 |
| 20260503215740 | 61 | 201 | 6.0 | 18.0 | 0.00 | 0.00 | 0.00 | 45 | 1008.6 |
| 20260503215635 | 61 | 169 | 11.0 | 18.0 | 0.00 | 0.00 | 0.00 | 44 | 1008.6 |
| 20260503215530 | 61 | 208 | 7.0 | 15.0 | 0.00 | 0.00 | 0.00 | 45 | 1008.3 |
| 20260503215424 | 61 | 234 | 11.0 | 15.0 | 0.00 | 0.00 | 0.00 | 44 | 1008.6 |
| 20260503215319 | 61 | 202 | 5.0 | 15.0 | 0.00 | 0.00 | 0.00 | 45 | 1008.6 |
| 20260503215229 | 61 | 251 | 6.0 | 15.0 | 0.00 | 0.00 | 0.00 | 44 | 1008.6 |
| 20260503215212 | 61 | 250 | 7.0 | 15.0 | 0.00 | 0.00 | 0.00 | 45 | 1008.6 |
| 20260503215104 | 61 | 236 | 7.0 | 15.0 | 0.00 | 0.00 | 0.00 | 45 | 1008.6 |
| 20260503214958 | 61 | 220 | 6.0 | 15.0 | 0.00 | 0.00 | 0.00 | 44 | 1008.6 |
| 20260503214852 | 62 | 203 | 2.0 | 19.0 | 0.00 | 0.00 | 0.00 | 44 | 1008.6 |
| 20260503214720 | 62 | 209 | 3.0 | 19.0 | 0.00 | 0.00 | 0.00 | 44 | 1008.3 |
| 20260503214642 | 62 | 206 | 9.0 | 19.0 | 0.00 | 0.00 | 0.00 | 44 | 1008.3 |
| 20260503214536 | 62 | 245 | 5.0 | 19.0 | 0.00 | 0.00 | 0.00 | 46 | 1008.6 |
| 20260503214430 | 62 | 227 | 4.0 | 19.0 | 0.00 | 0.00 | 0.00 | 44 | 1008.6 |
| 20260503214325 | 62 | 230 | 9.0 | 19.0 | 0.00 | 0.00 | 0.00 | 43 | 1008.6 |
| 20260503214219 | 61 | 230 | 5.0 | 19.0 | 0.00 | 0.00 | 0.00 | 45 | 1008.6 |
| 20260503214002 | 61 | 231 | 6.0 | 19.0 | 0.00 | 0.00 | 0.00 | 45 | 1008.6 |
| 20260503213857 | 61 | 188 | 10.0 | 18.0 | 0.00 | 0.00 | 0.00 | 44 | 1009.0 |
| 20260503213751 | 61 | 223 | 7.0 | 17.0 | 0.00 | 0.00 | 0.00 | 45 | 1009.0 |
| 20260503213645 | 61 | 267 | 2.0 | 17.0 | 0.00 | 0.00 | 0.00 | 45 | 1008.6 |
| 20260503213540 | 61 | 260 | 10.0 | 17.0 | 0.00 | 0.00 | 0.00 | 44 | 1009.0 |
| 20260503213512 | 61 | 214 | 14.0 | 17.0 | 0.00 | 0.00 | 0.00 | 44 | 1008.6 |
| 20260503213433 | 61 | 293 | 9.0 | 17.0 | 0.00 | 0.00 | 0.00 | 45 | 1009.0 |
| 20260503213327 | 61 | 240 | 4.0 | 17.0 | 0.00 | 0.00 | 0.00 | 45 | 1009.0 |
| 20260503213222 | 61 | 152 | 6.0 | 17.0 | 0.00 | 0.00 | 0.00 | 44 | 1008.6 |
| 20260503213114 | 61 | 246 | 9.0 | 17.0 | 0.00 | 0.00 | 0.00 | 45 | 1008.6 |
| 20260503213008 | 61 | 167 | 5.0 | 18.0 | 0.00 | 0.00 | 0.00 | 45 | 1009.0 |
| 20260503212902 | 61 | 170 | 9.0 | 18.0 | 0.00 | 0.00 | 0.00 | 44 | 1008.6 |
| 20260503212758 | 61 | 228 | 9.0 | 18.0 | 0.00 | 0.00 | 0.00 | 44 | 1008.6 |
| 20260503212651 | 61 | 189 | 11.0 | 18.0 | 0.00 | 0.00 | 0.00 | 44 | 1008.6 |
| 20260503212545 | 61 | 205 | 8.0 | 18.0 | 0.00 | 0.00 | 0.00 | 44 | 1008.6 |
| 20260503212457 | 61 | 197 | 10.0 | 18.0 | 0.00 | 0.00 | 0.00 | 44 | 1008.6 |
| 20260503212440 | 61 | 216 | 9.0 | 18.0 | 0.00 | 0.00 | 0.00 | 44 | 1008.6 |
| 20260503212334 | 61 | 232 | 11.0 | 18.0 | 0.00 | 0.00 | 0.00 | 44 | 1008.6 |
| 20260503212228 | 61 | 223 | 10.0 | 18.0 | 0.00 | 0.00 | 0.00 | 43 | 1008.6 |
| 20260503212123 | 61 | 234 | 15.0 | 18.0 | 0.00 | 0.00 | 0.00 | 43 | 1009.0 |
| 20260503212017 | 61 | 231 | 9.0 | 17.0 | 0.00 | 0.00 | 0.00 | 43 | 1008.6 |